GFSSGP_sfc_wetblb_084.txt.gz
Wetbulb
61.93 60.11 61.81 60.42 51.11 50.65 44.90 46.40 51.53 50.19 50.34 52.40 57.89 55.45 54.57 54.99 52.11 49.91 65.11 66.74 68.21 68.07 68.98 69.64 70.19 70.65 70.25 70.40 70.83 71.29 71.76 71.91 71.24 70.71 69.65 68.37 68.32 68.57 67.99 68.03 68.64 69.06 67.80 67.47 67.29 67.33 66.72 67.28 67.72
58.89 58.39 60.99 56.79 49.46 43.57 43.93 48.61 49.69 51.13 52.62 55.73 55.40 55.23 54.14 54.06 61.15 61.26 64.11 66.69 68.24 68.33 68.49 68.59 69.98 70.82 70.28 70.27 70.63 71.26 71.72 71.92 71.03 70.32 69.16 67.99 67.89 68.34 68.03 68.76 68.82 69.30 68.17 67.82 67.08 67.52 67.57 68.46 68.15
57.55 57.20 55.62 52.87 48.69 44.15 43.73 47.70 52.01 51.72 53.52 53.10 54.04 57.19 56.12 55.73 61.44 63.60 66.46 67.21 67.83 68.23 70.21 70.16 70.15 70.76 69.53 69.54 69.85 70.35 71.40 71.89 70.68 69.88 68.59 67.50 67.51 67.90 67.89 68.39 68.55 69.17 68.01 67.31 66.93 65.96 67.47 67.75 67.48
59.05 57.76 53.67 48.93 44.91 45.48 46.08 48.68 51.79 52.98 51.89 52.63 55.59 53.03 59.48 62.67 62.93 65.18 67.29 67.73 67.59 69.00 70.02 69.55 70.40 69.92 68.95 69.01 68.88 69.65 70.85 70.68 69.92 69.00 67.76 67.30 67.09 67.48 67.63 68.14 67.13 67.95 68.71 67.36 67.01 67.68 67.49 67.00 66.64
58.11 55.94 48.27 45.92 44.82 45.88 47.41 50.20 52.55 52.76 51.67 52.67 54.16 52.55 56.35 62.70 65.17 66.56 66.56 67.32 67.71 68.98 70.29 69.97 69.76 69.74 69.68 69.07 68.67 69.29 70.40 70.26 69.53 68.31 67.39 66.86 66.74 66.85 67.11 67.49 66.12 66.25 67.63 67.26 67.37 67.64 66.94 66.47 65.95
52.56 53.75 46.68 44.08 44.60 46.57 49.16 50.71 51.96 51.24 51.11 52.79 53.25 54.16 57.36 64.16 64.92 66.32 66.45 67.06 68.68 68.89 69.88 69.73 67.18 68.03 68.81 68.95 69.16 69.35 69.81 70.00 68.99 67.67 66.99 66.56 66.36 66.39 66.75 66.13 65.12 67.53 68.41 67.81 67.23 66.60 66.31 65.90 65.62
51.03 50.03 46.73 45.60 45.22 46.71 48.71 51.29 50.55 50.42 50.85 51.66 56.20 51.60 58.02 63.03 65.60 66.59 66.06 67.45 68.68 69.16 69.66 69.34 68.68 67.52 66.35 67.18 67.56 68.35 68.76 69.01 68.82 68.08 67.30 67.02 66.84 66.81 66.61 66.67 65.54 66.71 67.35 67.12 66.56 65.94 65.76 65.50 65.30
52.75 51.38 45.33 45.64 45.21 45.38 50.03 50.22 50.54 50.67 50.09 54.73 57.44 51.06 54.36 63.13 65.72 66.28 65.82 66.64 68.00 68.57 69.14 69.21 68.89 68.19 68.44 68.03 64.75 65.69 66.85 67.15 67.29 66.50 65.17 64.56 64.78 64.78 64.49 64.26 65.42 65.60 66.70 66.61 65.79 65.27 65.00 65.04 64.24
51.40 48.22 45.62 45.25 45.71 46.62 49.56 49.39 49.38 50.48 51.22 53.35 56.00 54.26 60.25 65.22 65.43 64.77 64.16 64.88 66.46 67.29 68.39 69.06 68.59 68.18 68.25 68.40 65.58 63.94 64.44 64.72 64.31 63.80 61.94 62.60 65.05 64.55 63.96 62.94 64.55 65.63 66.34 65.81 64.80 63.91 63.50 63.93 63.09
50.80 47.72 47.43 49.04 48.78 48.36 49.59 50.03 50.04 49.42 49.51 50.22 52.65 54.88 61.75 64.63 64.07 62.94 62.94 62.85 64.37 65.70 67.05 67.40 67.97 68.36 68.02 67.42 67.87 67.52 66.90 67.10 66.90 66.30 64.90 64.54 64.45 64.27 63.24 61.95 62.27 63.00 63.29 64.25 63.83 62.79 60.93 61.25 63.37
48.39 46.85 47.71 46.68 47.88 49.42 49.32 48.48 49.98 49.30 47.94 50.67 50.96 52.93 60.53 63.56 63.75 62.82 63.06 63.79 64.40 65.61 66.48 65.94 66.54 67.56 68.09 67.70 67.97 67.70 67.03 66.85 66.66 66.22 65.09 63.99 63.43 63.55 63.54 64.36 63.76 63.72 60.70 62.56 62.28 62.03 62.69 62.45 63.14
46.48 45.86 47.09 47.60 47.97 47.95 48.65 49.32 48.23 49.31 49.98 49.56 51.51 53.98 60.32 62.45 63.03 62.99 62.99 63.67 64.28 65.10 66.12 66.61 66.53 66.96 67.06 67.84 67.72 67.84 67.17 66.53 65.83 65.71 64.89 63.47 62.69 63.09 63.11 63.48 63.81 63.72 63.20 62.88 62.72 62.36 62.18 62.31 62.47
46.52 45.92 46.90 46.89 46.66 47.61 47.63 47.06 47.81 48.05 49.86 49.10 49.73 53.69 58.20 61.67 62.96 64.04 64.54 64.91 64.90 64.78 66.02 66.66 66.56 66.32 66.77 66.61 67.15 66.84 67.11 66.54 66.01 65.24 64.73 63.89 62.49 62.35 62.90 62.95 63.19 63.16 63.07 62.40 61.84 61.54 61.12 61.01 61.20
46.12 47.04 46.52 46.17 45.95 45.90 45.99 45.45 46.17 46.66 47.66 48.27 49.25 52.58 57.05 60.34 62.33 63.66 64.11 64.40 65.11 65.81 66.34 66.95 66.28 66.09 66.07 66.47 66.95 66.67 66.02 66.40 66.36 65.31 64.50 63.76 62.91 62.19 62.27 62.36 62.28 62.46 62.24 61.61 61.05 60.72 60.53 60.45 60.37
46.02 44.42 45.26 45.07 45.49 45.11 46.09 42.99 44.51 46.45 46.25 47.13 48.68 50.82 54.01 59.11 62.00 62.37 63.92 64.30 65.36 66.30 66.86 66.18 66.08 66.05 65.70 65.96 66.39 66.35 66.43 66.00 65.73 65.93 64.94 63.68 62.88 62.10 61.57 61.93 61.76 61.71 61.76 59.91 59.14 59.84 59.49 59.15 58.95
43.05 44.26 41.43 42.45 44.53 44.82 44.08 42.37 42.47 46.36 46.25 46.64 47.25 48.59 49.01 53.19 59.69 62.54 63.90 64.45 65.49 66.24 66.12 66.84 65.49 65.70 65.76 65.62 66.17 66.04 66.34 66.20 65.78 64.97 65.10 64.19 62.98 62.41 61.59 61.30 60.80 60.09 59.08 58.69 58.50 57.69 55.31 55.77 55.64
41.42 39.34 39.57 38.58 43.52 43.86 43.00 42.34 43.72 46.28 46.64 47.11 48.18 48.31 48.09 48.96 49.81 54.26 61.14 63.48 64.82 65.28 65.73 66.13 66.24 64.48 65.30 65.64 65.62 65.54 65.65 66.00 65.91 64.98 63.40 63.05 63.14 62.58 61.80 61.37 59.42 58.58 57.95 56.64 56.10 54.17 54.65 54.40 53.56
38.14 37.71 37.17 38.79 42.07 42.83 41.89 43.00 44.81 46.21 45.81 47.88 48.13 48.34 48.28 48.49 49.14 49.58 50.45 53.85 61.43 64.26 65.23 65.67 66.35 66.09 64.54 64.99 64.94 64.80 64.86 65.35 65.58 65.04 63.92 63.20 62.05 61.70 61.84 61.98 59.76 58.28 57.64 56.68 55.31 54.29 52.64 53.05 54.57
41.23 39.65 38.71 38.99 41.73 41.83 41.83 42.57 44.48 46.05 45.65 46.87 46.82 46.44 46.54 47.03 47.19 47.09 47.57 49.10 50.87 57.81 62.36 63.86 64.74 65.77 65.13 63.20 63.09 62.98 62.48 63.45 63.90 64.57 64.63 63.97 62.75 61.51 60.44 60.22 61.61 59.02 56.80 56.46 55.74 54.86 52.15 49.84 51.77
40.33 38.84 37.99 39.76 40.69 41.16 40.31 42.07 44.88 42.48 43.14 43.12 43.77 44.27 45.06 46.25 47.57 48.26 49.08 48.66 47.86 50.97 55.54 60.19 62.51 64.15 65.12 64.34 63.45 63.85 63.30 63.46 63.73 64.40 64.11 63.96 62.83 61.71 60.28 59.93 59.43 59.01 58.27 58.35 57.60 54.89 53.62 53.52 52.97
38.79 39.04 37.81 38.79 38.73 39.07 38.42 39.97 39.62 41.30 43.12 44.07 44.58 44.91 45.68 45.78 47.03 48.35 48.93 50.05 50.96 49.12 48.56 53.31 57.86 61.10 63.37 64.72 63.49 62.72 61.91 61.90 62.85 63.00 63.18 63.57 63.48 62.57 61.10 60.48 60.02 58.86 57.64 56.62 55.79 54.63 53.17 51.70 50.51
36.77 39.97 39.79 38.11 39.05 35.55 37.82 35.10 38.34 39.53 41.60 43.46 44.86 45.93 46.34 47.12 47.80 48.37 48.98 49.30 50.05 51.02 51.81 49.26 51.22 56.12 59.86 62.65 62.79 61.29 60.19 59.92 61.66 62.72 63.43 63.67 63.84 63.07 62.29 61.31 60.54 59.74 58.61 57.37 57.31 56.10 54.84 52.89 49.84
38.16 40.62 39.90 38.77 38.15 37.79 36.84 36.18 38.04 38.93 39.99 41.70 43.40 44.45 45.68 46.50 47.78 47.46 47.65 48.16 48.97 50.49 52.05 54.36 54.83 54.82 56.08 59.38 61.35 61.23 61.17 61.92 62.52 63.09 62.93 63.65 64.23 63.81 62.99 62.07 61.27 60.11 59.34 58.63 58.39 57.10 54.40 53.88 52.23
39.85 39.28 38.66 38.23 37.59 32.37 36.16 35.66 36.66 37.59 40.51 41.15 42.87 43.97 45.21 45.90 46.70 47.26 47.58 48.50 48.66 49.89 50.54 51.46 51.09 51.72 56.70 58.63 58.97 59.97 60.01 60.06 59.59 60.27 60.87 61.77 62.52 63.04 63.23 62.69 61.73 61.32 60.15 59.14 58.47 57.53 55.75 53.94 53.52
39.01 39.37 31.63 30.89 30.74 30.55 31.48 31.91 37.51 38.41 41.97 43.93 43.64 44.16 44.96 46.45 46.93 46.98 46.99 47.10 47.49 47.92 48.60 48.74 49.35 48.53 50.49 51.42 52.13 54.69 56.09 56.64 56.70 56.86 56.75 56.67 57.23 57.83 58.90 59.55 58.87 59.32 59.47 59.68 58.95 58.00 56.28 54.73 53.44
38.26 38.47 33.40 26.47 26.43 29.62 30.14 30.56 36.53 39.07 40.92 44.03 44.65 44.22 44.98 45.59 46.14 46.08 46.35 46.64 46.45 46.55 47.51 47.74 47.49 47.21 48.44 49.18 49.38 50.21 50.77 51.51 52.06 52.27 53.01 54.46 55.38 56.61 57.44 57.29 57.61 57.86 58.32 58.37 58.20 57.31 56.49 55.34 53.51
37.09 34.41 37.43 30.09 23.17 30.47 33.81 35.63 38.28 39.31 40.42 42.24 42.91 43.97 44.51 45.09 45.48 45.30 45.50 45.96 46.03 45.87 45.75 46.40 46.38 46.03 46.35 46.77 47.45 47.57 48.13 48.51 48.58 49.41 50.24 50.46 51.20 50.48 51.01 52.52 53.08 54.20 54.96 55.14 55.39 55.51 55.25 54.23 53.79
38.37 39.32 33.67 34.25 26.96 26.45 30.44 31.90 36.60 35.75 38.86 41.75 41.67 43.28 43.76 44.19 44.55 44.78 45.07 45.17 45.38 45.65 45.99 46.23 45.95 45.08 45.33 45.96 45.78 45.54 45.69 46.26 46.63 46.90 46.31 46.75 47.60 48.05 48.45 49.05 49.76 50.30 51.02 51.83 52.64 52.72 53.17 53.66 53.44
35.18 35.04 34.39 36.25 33.49 29.96 27.78 32.82 39.87 39.75 41.73 41.56 42.94 43.50 43.94 43.92 44.05 44.09 44.09 44.62 45.12 45.58 45.59 45.14 44.78 44.05 43.90 44.28 44.77 44.59 44.24 44.32 44.74 44.39 44.17 43.90 44.73 44.63 44.98 45.58 46.35 47.17 47.95 48.89 49.38 50.04 50.80 50.59 50.67
36.87 36.73 36.95 33.43 28.12 29.74 30.38 34.66 38.86 43.03 44.01 43.54 42.36 42.27 44.02 44.03 43.64 43.77 43.69 43.93 44.08 43.77 43.73 43.24 42.88 41.97 41.74 42.27 42.96 42.49 42.68 42.65 42.56 42.13 41.90 41.85 41.59 42.19 41.99 42.53 43.14 43.97 44.84 45.71 46.01 46.32 47.25 47.50 47.39

GFSSGP_sfc_wetblb_087.txt.gz
Wetbulb
62.99 61.08 61.83 60.28 51.79 50.26 45.91 47.95 54.11 52.53 53.32 56.35 58.93 55.87 54.30 55.84 52.98 52.71 66.64 68.05 69.47 68.73 68.74 69.52 70.74 70.62 70.43 70.45 70.53 71.13 71.31 71.33 70.55 69.38 68.61 68.89 68.43 67.98 67.75 68.76 69.40 68.67 67.45 67.77 67.22 67.55 68.09 68.64 68.94
60.40 59.27 60.79 56.51 49.30 43.76 44.28 50.22 50.40 52.30 54.05 58.36 57.39 55.78 54.41 55.81 61.94 62.89 64.71 68.08 68.38 68.13 68.68 68.18 70.02 70.52 70.02 70.39 71.30 71.38 71.16 71.40 70.28 69.06 68.29 68.52 68.43 68.73 68.95 68.96 69.47 68.03 67.68 67.67 68.48 68.50 68.46 68.21 68.14
60.30 58.70 55.78 52.52 49.31 44.83 44.43 49.06 52.23 54.23 54.98 55.04 54.74 57.65 55.83 56.55 62.84 64.61 67.62 68.13 68.20 67.90 68.87 69.15 70.11 70.40 69.68 69.96 70.67 71.52 71.12 71.18 69.97 68.54 67.99 68.22 68.03 68.02 68.38 69.02 69.19 68.24 67.18 67.10 67.01 68.67 68.05 67.84 67.71
58.68 58.23 55.63 49.03 46.13 47.49 47.32 50.37 53.47 53.99 53.51 54.32 55.71 53.38 59.50 63.46 64.19 66.80 67.82 68.01 67.42 69.07 69.26 69.47 70.19 69.61 69.07 69.20 70.14 71.21 71.03 70.48 69.31 68.14 67.79 67.86 67.99 67.82 67.81 67.24 68.88 68.56 67.49 67.43 67.96 67.84 67.35 66.99 67.02
57.68 55.94 49.38 47.86 47.06 47.52 49.34 52.45 53.67 52.84 52.73 53.65 54.10 52.50 57.41 63.44 66.70 67.58 67.33 67.45 67.67 69.02 69.08 69.54 69.55 69.58 69.23 68.72 69.21 70.65 70.68 69.61 68.73 67.72 67.34 67.24 67.50 67.19 67.42 66.38 67.09 68.05 67.70 67.78 67.87 67.33 66.60 66.27 66.10
52.99 54.45 47.21 45.56 46.35 48.15 50.62 53.46 53.95 52.94 52.25 53.40 52.45 53.55 58.33 65.11 65.96 66.70 67.40 67.55 68.99 69.06 68.96 68.86 66.96 68.19 68.88 68.98 69.22 69.73 70.52 69.46 68.57 67.52 66.95 66.79 66.96 67.18 66.29 65.70 66.36 68.19 67.74 67.62 67.17 66.42 66.03 65.87 65.33
52.11 50.53 48.14 47.95 46.72 47.60 49.71 53.90 52.14 51.20 51.06 51.80 55.84 51.80 59.02 63.26 66.51 66.77 66.85 68.31 69.16 69.06 68.19 68.25 68.04 67.05 66.70 67.49 67.92 68.53 69.39 68.99 68.29 67.81 67.31 67.27 67.31 67.39 67.03 66.13 67.30 67.89 67.44 67.14 66.57 66.04 65.64 65.52 64.61
53.62 52.06 47.77 48.25 46.12 46.34 51.20 51.90 52.79 51.62 51.20 56.67 57.92 51.41 55.04 63.35 66.64 66.23 66.67 67.91 68.31 68.47 68.25 67.62 67.67 67.61 67.82 67.47 65.22 66.20 67.09 67.60 67.29 66.33 65.25 64.71 64.69 64.77 64.76 63.89 65.38 66.96 66.67 66.59 65.77 65.38 65.36 64.90 63.79
54.48 48.68 45.80 46.64 46.62 48.22 51.71 50.49 52.38 53.15 52.68 55.04 56.42 56.49 61.19 65.46 66.33 64.78 64.91 66.36 66.95 66.57 67.66 68.62 67.63 67.76 67.99 67.65 65.27 64.38 64.65 64.93 64.12 63.63 62.42 62.47 64.34 64.35 64.03 62.99 64.24 66.32 66.35 65.49 64.54 64.01 63.89 63.80 62.70
50.39 48.65 48.35 50.84 50.20 49.43 51.28 51.33 51.22 50.59 51.15 51.52 54.02 59.08 64.17 64.99 64.70 63.09 63.12 63.95 65.45 66.07 66.57 67.73 68.09 67.88 67.96 67.27 66.95 67.25 66.95 66.88 66.84 66.00 64.39 64.87 64.52 64.02 63.59 62.03 62.13 63.33 63.84 64.33 64.15 63.02 61.53 61.77 62.56
51.06 48.49 50.30 49.36 49.97 51.78 51.09 50.63 52.25 50.39 49.06 51.54 51.70 55.57 62.25 63.57 63.65 63.30 63.30 64.21 65.15 66.62 67.33 67.87 67.58 67.90 68.01 67.41 67.60 67.42 66.96 67.12 66.93 66.53 65.28 64.44 64.07 63.27 63.51 64.03 62.98 63.32 60.49 62.49 62.13 61.49 62.22 62.27 62.62
47.61 48.74 49.64 49.11 49.29 50.35 49.99 51.32 49.98 50.96 51.03 52.80 53.92 56.18 61.18 62.17 62.61 63.04 63.44 64.11 64.84 66.02 66.91 67.43 67.31 67.05 68.29 67.47 67.55 67.04 66.91 66.86 66.34 66.35 65.57 64.14 63.39 63.46 63.51 63.72 63.95 64.03 62.94 62.90 62.69 62.22 62.25 62.40 62.48
48.63 48.33 49.05 49.32 48.77 50.32 50.40 49.51 49.51 50.07 52.09 51.89 52.04 55.20 58.79 61.10 62.40 63.38 64.15 64.81 65.49 65.34 66.31 67.02 67.64 67.18 67.76 67.32 67.49 66.76 66.65 66.75 66.62 66.14 65.71 64.61 63.47 63.24 63.58 63.58 63.79 63.66 63.25 62.63 62.22 61.82 61.55 61.57 61.69
49.07 49.04 48.41 48.82 48.44 48.06 48.35 48.02 48.30 49.22 50.35 50.48 50.82 53.51 56.81 59.78 61.71 62.85 63.32 63.68 64.45 65.40 66.02 67.22 67.23 67.17 66.44 66.20 66.37 66.59 67.11 67.24 66.57 66.40 65.66 64.92 64.13 63.36 63.29 63.12 63.04 63.13 63.07 62.63 61.83 61.36 61.09 60.93 61.08
49.17 44.85 46.64 47.28 47.53 46.81 47.91 45.09 46.04 48.51 48.54 48.81 49.67 52.44 55.08 58.24 61.25 62.08 63.64 63.62 64.87 65.66 66.49 66.81 67.19 66.68 65.63 65.88 66.17 66.25 66.48 65.75 65.84 65.64 66.14 65.15 64.25 63.48 62.85 62.91 62.62 62.91 62.93 62.16 61.20 60.84 60.65 60.35 60.45
45.45 46.40 42.48 45.64 46.80 46.84 46.07 43.95 47.10 47.95 47.38 47.85 49.59 50.93 52.80 55.89 59.67 62.13 63.48 64.31 65.16 65.81 66.17 67.28 66.95 66.15 65.70 65.94 66.38 66.47 66.37 65.96 65.57 65.53 65.50 65.59 64.65 63.96 63.16 62.39 62.49 63.06 62.40 60.81 59.26 59.72 59.34 59.12 58.88
43.87 40.75 41.85 41.20 46.19 45.99 45.06 44.38 45.34 48.16 47.66 47.58 48.63 49.69 50.34 51.47 54.60 60.19 62.81 64.07 64.72 65.48 65.97 66.43 67.19 65.17 65.36 65.92 66.19 66.42 66.22 65.80 65.62 65.30 65.50 65.16 64.54 64.30 63.32 62.73 62.82 62.15 60.28 58.78 58.25 58.01 57.27 56.34 56.52
40.00 40.58 41.32 41.72 43.45 44.36 44.02 43.99 46.03 47.52 47.49 48.54 49.40 50.16 50.31 50.22 50.75 52.12 54.31 59.81 63.82 64.97 65.74 66.28 66.84 66.48 64.76 65.34 65.58 65.83 65.58 65.65 65.62 65.20 65.16 64.65 64.07 63.26 62.82 63.18 63.03 61.47 59.07 58.73 57.34 56.01 55.67 55.67 55.10
44.04 41.60 40.20 42.76 43.55 43.62 43.35 43.92 45.37 47.09 47.51 48.08 49.07 48.89 49.28 49.04 49.67 49.26 50.18 51.78 53.09 59.03 63.85 64.84 65.27 66.57 65.41 64.06 63.78 63.64 63.29 64.10 64.62 65.10 65.48 64.90 63.64 62.56 61.72 61.35 61.21 61.76 59.45 58.50 57.70 57.22 55.77 54.93 54.50
42.66 40.90 40.59 41.25 42.66 42.91 43.33 42.74 45.50 45.85 46.27 46.33 46.74 47.55 47.56 48.38 49.22 49.76 50.81 50.96 50.66 51.84 57.10 62.05 64.05 65.30 66.16 64.19 64.12 64.05 63.85 64.06 64.37 64.65 64.65 64.77 64.07 62.92 61.56 61.05 60.45 60.16 58.65 57.96 57.65 56.39 54.41 53.37 53.95
41.33 40.18 40.29 40.23 40.67 41.93 41.24 41.04 43.11 43.03 45.08 46.20 46.90 47.22 47.89 48.48 49.11 50.34 51.23 52.33 52.34 50.91 52.67 56.02 60.81 63.53 64.98 65.49 63.88 63.59 62.72 62.74 63.20 63.43 63.71 63.99 64.15 63.21 61.69 60.99 60.72 60.43 59.45 58.14 58.07 57.28 54.81 53.11 53.72
38.23 42.38 42.21 40.23 39.70 36.50 40.72 35.98 41.28 42.08 43.34 45.23 46.61 47.76 48.04 48.61 49.73 50.44 50.72 51.20 52.41 53.14 51.97 51.61 56.26 59.34 61.92 64.12 63.96 61.86 61.06 59.91 61.14 62.38 63.67 63.61 64.07 63.62 62.88 61.72 61.09 60.58 59.94 58.53 58.25 58.32 56.64 54.73 53.08
40.25 43.29 42.33 41.90 40.68 38.92 38.37 36.57 40.50 41.11 40.94 43.05 45.71 46.58 47.72 48.63 49.08 48.69 49.13 50.02 51.39 53.41 55.27 54.69 54.26 56.03 58.09 60.78 62.10 61.99 60.28 61.17 61.74 61.29 61.64 62.75 63.45 63.69 63.45 62.48 61.62 60.75 60.31 59.65 58.74 58.16 57.03 56.02 54.52
42.79 41.63 41.17 41.60 40.04 33.00 38.73 37.24 38.93 38.67 41.92 43.57 45.12 46.44 46.89 47.59 47.97 48.37 49.47 50.31 50.49 52.01 52.60 53.84 54.97 57.16 58.51 58.93 60.03 60.07 59.75 58.98 58.17 58.35 58.12 58.91 59.50 60.30 60.68 61.11 61.40 61.44 60.79 60.05 59.73 59.04 58.16 56.41 55.26
42.31 39.16 32.80 31.64 31.48 31.04 34.63 34.39 39.25 40.72 44.55 45.42 44.49 45.61 46.88 48.30 48.76 48.85 48.90 48.99 49.58 49.81 50.28 50.88 51.13 50.90 52.52 53.21 53.85 55.45 56.90 56.71 56.32 55.98 56.41 56.45 57.27 58.20 58.90 59.24 59.25 59.64 59.44 58.58 58.29 57.84 57.40 56.64 55.24
39.59 39.77 34.35 27.14 28.43 32.25 31.71 31.62 38.20 42.70 45.73 47.02 46.78 46.70 47.26 47.32 48.06 48.17 48.32 48.35 48.32 48.82 49.42 49.44 49.20 49.07 50.15 50.51 50.49 51.20 51.73 51.77 51.52 51.54 51.81 52.11 52.22 52.79 52.76 53.12 54.52 55.44 56.23 56.54 55.91 55.66 55.86 56.34 55.58
39.27 35.97 40.41 32.30 27.55 32.00 34.64 37.72 39.92 40.82 43.05 44.53 44.74 45.50 46.28 46.98 47.33 47.20 47.82 48.03 47.75 47.63 47.91 48.30 47.94 47.79 48.09 48.32 48.56 48.29 48.62 48.59 48.47 48.66 49.06 48.79 49.37 48.60 49.35 50.58 50.78 51.57 52.22 52.92 53.28 54.05 53.90 53.53 53.51
40.17 41.79 33.59 36.13 28.16 28.38 33.42 35.07 37.07 36.60 39.89 42.52 42.92 44.98 45.99 46.65 46.48 46.90 47.09 47.07 47.38 47.54 47.70 47.80 47.50 46.60 47.18 47.42 47.20 46.77 46.78 47.13 47.21 47.01 46.14 46.00 46.49 46.29 46.60 46.80 47.36 48.09 49.05 49.85 50.47 50.83 51.90 51.95 51.96
36.84 36.31 37.21 38.11 36.45 32.32 30.04 33.92 41.10 40.74 42.44 42.78 44.06 46.03 45.73 45.88 46.20 46.38 46.46 46.87 46.99 47.28 46.83 46.27 45.82 45.29 45.11 45.69 45.59 45.28 45.06 45.26 45.29 44.65 44.21 43.73 44.71 43.99 43.92 43.84 44.27 44.87 45.30 46.24 46.63 47.32 47.92 47.83 48.46
40.46 38.93 38.41 34.10 30.45 33.24 32.09 35.79 41.68 44.07 44.41 45.75 45.12 45.99 46.39 46.37 46.16 46.12 46.00 46.07 45.82 45.29 45.10 44.11 43.61 42.88 43.09 43.59 43.64 43.09 43.01 43.14 42.58 42.04 41.96 42.35 41.82 42.61 42.49 42.42 42.45 42.71 42.94 43.60 43.51 43.65 44.68 44.77 45.10

GFSSGP_sfc_wetblb_093.txt.gz
Wetbulb
60.93 55.90 54.97 52.13 44.77 41.75 38.39 43.15 48.24 48.38 47.30 50.13 51.22 53.53 53.47 54.14 54.06 49.07 63.94 66.76 67.73 67.91 69.33 69.93 71.23 71.74 71.76 72.10 71.75 71.76 70.89 69.67 69.37 69.29 68.44 68.80 69.52 68.60 68.25 68.30 69.20 69.14 68.88 69.20 69.53 69.31 69.48 69.08 68.97
56.71 56.94 52.82 48.15 40.64 36.19 36.22 43.72 44.92 48.27 50.86 52.42 52.33 52.70 52.37 53.19 59.05 60.26 62.11 65.98 67.74 67.89 68.64 69.31 70.23 71.37 71.69 71.87 71.07 71.55 70.86 69.56 69.17 68.65 69.23 69.38 69.72 68.87 68.28 67.94 69.04 68.95 69.38 69.00 68.91 68.71 68.46 67.94 68.35
56.75 56.31 48.22 44.71 39.72 36.44 37.72 43.18 46.07 48.95 50.95 50.37 49.40 53.01 53.44 55.73 59.83 61.70 65.50 66.68 67.00 66.88 68.33 68.89 70.01 71.16 71.33 71.31 70.87 71.17 70.54 69.76 68.97 69.05 68.70 69.12 69.88 68.94 68.38 67.84 68.53 68.70 68.85 68.61 68.55 67.85 67.38 67.07 66.79
52.75 51.52 47.68 40.85 38.11 40.93 41.94 45.20 47.39 46.78 48.86 50.86 51.31 50.65 55.64 60.96 62.68 63.85 65.74 65.80 65.61 66.82 68.15 68.78 70.08 70.75 70.85 70.89 70.84 71.02 70.28 68.71 68.46 68.51 67.73 68.23 68.27 69.52 68.67 68.62 68.29 68.32 68.28 67.78 67.69 67.39 66.93 66.38 65.87
50.49 48.08 41.67 39.09 41.11 41.56 43.43 48.55 48.27 46.30 46.90 47.40 50.61 51.02 54.95 60.82 63.86 63.83 65.58 66.10 65.25 66.38 67.50 68.13 69.11 69.95 70.78 70.83 70.89 70.78 69.98 68.68 68.13 68.53 67.96 67.73 67.12 67.87 68.35 68.49 68.33 68.59 67.81 67.24 66.86 66.69 66.24 65.60 64.89
46.73 46.50 39.08 36.59 38.15 41.93 44.41 47.29 48.23 45.30 46.95 48.67 52.70 53.43 54.61 61.74 62.00 62.49 66.15 65.79 66.30 66.37 66.92 67.25 66.15 67.62 68.98 69.89 70.37 70.02 69.65 69.16 68.63 68.45 68.04 67.27 66.69 67.09 68.17 68.16 68.44 68.25 67.31 66.71 66.31 65.97 65.51 64.80 64.07
44.88 42.43 38.55 37.90 38.21 40.35 44.35 47.80 46.26 45.73 45.22 46.62 53.65 51.04 56.07 59.32 62.17 62.17 65.45 65.98 65.94 65.95 65.66 65.70 65.98 65.74 65.74 67.13 68.01 68.28 68.46 68.22 68.17 68.20 67.64 67.20 67.04 66.38 66.73 68.30 68.43 67.43 66.85 66.50 66.08 65.66 64.98 64.31 63.37
46.10 43.47 38.97 38.15 38.68 40.06 45.70 46.75 46.51 46.79 46.39 50.65 53.35 50.69 52.92 59.20 62.36 62.32 65.66 64.79 64.61 64.56 64.59 63.97 64.55 65.12 64.82 65.17 64.62 65.46 66.51 66.84 66.45 65.81 64.69 63.93 63.83 63.80 64.02 63.48 66.87 67.38 66.30 66.11 65.84 65.35 64.63 63.68 62.56
47.15 40.71 38.56 40.65 40.71 41.91 46.04 44.10 46.10 47.26 48.98 50.04 53.44 53.88 58.47 61.90 61.66 61.59 63.49 62.64 63.07 63.35 63.37 63.29 63.61 63.97 64.32 64.34 63.07 63.48 63.88 63.90 63.54 62.90 61.69 60.85 60.89 60.69 61.09 62.15 64.76 66.45 65.78 64.68 63.89 63.56 63.69 62.50 61.46
43.82 39.71 41.64 44.25 44.09 43.68 45.55 45.59 45.59 46.24 46.52 48.26 55.86 59.29 60.96 60.97 59.35 60.04 62.07 61.52 61.60 62.38 62.72 62.82 62.71 63.53 63.97 65.33 63.47 63.25 63.10 62.02 61.85 61.29 60.60 60.96 59.94 60.38 60.38 59.31 61.59 63.31 63.48 64.39 63.37 62.34 62.05 60.91 57.92
43.46 41.74 44.25 44.34 46.45 47.52 45.78 44.36 45.84 45.52 42.98 48.61 55.49 57.57 58.90 58.54 57.66 59.44 59.92 61.68 62.09 62.83 64.49 64.38 62.84 63.53 62.72 63.10 63.02 62.91 62.39 61.90 61.50 59.84 60.18 59.69 59.18 59.44 59.06 58.00 58.10 57.75 58.00 58.35 59.07 58.53 58.00 58.16 58.66
41.46 44.62 45.56 47.05 46.43 46.96 45.61 46.14 44.47 44.48 44.42 49.91 57.94 59.25 58.82 57.83 57.99 58.98 59.65 60.82 61.52 62.83 62.84 65.26 65.11 64.42 63.48 62.72 62.97 62.88 62.32 62.21 61.46 60.44 60.33 58.90 57.68 57.01 58.76 58.11 57.96 57.81 57.40 57.18 57.38 57.29 57.77 57.68 58.19
42.87 43.48 46.07 46.07 45.41 45.95 46.78 44.03 43.77 43.90 45.23 50.99 57.78 58.92 57.82 58.00 57.60 58.30 59.82 61.33 62.18 62.48 63.29 64.09 65.07 64.02 64.65 64.22 64.17 63.41 63.69 62.61 62.12 61.55 60.87 59.25 58.36 57.60 58.08 58.45 58.59 58.27 57.18 57.88 57.19 56.93 57.13 57.17 57.55
44.62 45.38 44.70 45.28 43.85 44.23 43.97 41.75 44.24 43.21 44.96 48.65 55.20 55.85 56.81 57.64 58.44 58.09 58.43 59.27 61.45 62.77 63.43 64.31 64.01 64.18 64.06 63.62 64.37 63.87 64.02 64.11 63.53 62.26 61.21 60.52 58.96 58.28 58.44 58.02 58.36 58.23 58.02 57.58 57.20 56.73 56.42 56.28 56.56
44.61 41.11 41.07 42.64 43.48 43.06 43.59 40.76 40.90 43.96 44.96 45.34 47.51 50.70 54.87 56.38 57.61 57.64 58.52 58.56 60.78 62.21 63.85 64.04 64.15 64.15 63.61 63.30 64.35 64.28 64.30 64.45 63.63 63.37 62.98 61.26 60.43 58.61 58.37 57.94 57.73 57.97 58.10 57.45 56.32 55.88 55.77 55.23 55.70
41.70 39.81 35.39 40.45 42.99 42.32 41.38 37.32 42.00 42.74 42.88 42.75 43.44 44.41 49.45 53.81 56.07 57.07 58.05 58.78 60.13 60.83 62.36 63.90 64.77 63.97 62.94 63.15 64.36 64.40 64.58 64.12 63.95 64.08 63.86 62.92 62.00 60.21 58.34 57.54 57.76 57.91 57.47 56.62 55.51 54.92 54.56 54.13 54.96
35.83 31.85 35.07 37.21 41.96 40.84 39.61 37.34 41.34 42.25 41.55 40.52 41.10 42.72 46.34 49.48 52.50 55.45 57.79 58.18 59.07 60.43 60.80 62.20 63.10 62.88 62.01 63.07 64.87 64.98 64.81 64.30 64.34 64.17 63.82 63.64 63.06 62.32 60.07 58.40 57.63 57.59 56.54 55.65 55.22 54.45 54.43 54.28 54.35
31.44 32.14 35.30 34.50 39.79 39.34 36.73 37.05 40.20 42.16 40.72 39.81 39.95 41.22 44.81 47.59 50.14 50.56 53.62 56.28 58.66 59.74 60.81 61.69 63.03 62.54 62.05 62.41 64.57 64.88 64.61 64.54 64.68 64.28 63.87 63.68 63.24 62.72 61.97 61.30 60.56 59.32 57.48 55.73 56.66 55.80 55.04 54.03 53.41
36.77 36.02 35.99 36.11 39.49 39.05 37.61 37.88 39.59 41.51 40.64 38.88 38.74 40.72 42.27 42.80 42.62 43.77 44.84 45.32 47.31 52.81 59.01 61.38 62.36 62.19 62.03 61.33 62.89 62.97 62.75 63.38 63.59 63.90 63.81 63.68 63.21 62.74 61.96 61.28 60.84 60.49 58.03 57.15 56.65 55.99 54.06 54.15 53.65
36.49 34.97 32.79 35.59 38.60 37.29 37.04 38.38 39.00 40.61 40.72 41.01 41.54 40.58 41.09 41.09 43.41 44.61 45.20 44.97 44.54 45.22 47.04 56.17 61.94 62.04 61.91 62.21 62.34 63.45 63.31 63.26 63.68 63.66 63.84 63.90 63.19 62.57 61.61 60.88 60.37 60.10 59.32 58.89 57.42 56.00 54.46 54.29 54.05
35.52 34.48 33.63 34.52 36.01 34.95 34.07 32.68 37.03 39.01 40.26 40.96 41.07 41.38 41.41 41.73 42.94 43.73 45.37 45.45 44.73 43.97 44.59 48.04 56.26 61.87 62.17 62.35 63.02 62.13 61.92 61.56 61.94 62.28 62.65 63.17 63.52 62.73 61.33 60.88 60.31 59.66 59.11 58.54 57.84 56.92 55.36 54.86 53.77
34.25 38.74 37.54 35.57 33.36 28.67 32.08 25.88 32.35 35.59 37.11 39.18 39.90 39.83 40.34 41.84 43.58 44.76 45.02 45.66 45.73 47.72 44.59 45.43 51.61 59.19 62.55 63.37 62.39 61.65 60.56 59.34 60.84 61.23 61.85 61.93 62.49 62.39 61.53 60.69 60.06 59.31 58.80 58.45 57.82 57.38 57.13 55.56 54.23
36.53 39.50 37.47 35.63 33.45 29.59 28.74 26.86 29.88 34.46 33.89 37.15 38.77 39.80 40.68 41.73 42.65 43.25 44.71 46.51 46.87 48.51 44.46 46.91 51.47 53.80 57.53 62.30 62.00 60.54 59.38 59.43 58.71 57.78 57.49 57.90 58.48 56.70 56.64 58.40 59.57 59.27 58.94 58.76 58.32 57.62 56.56 56.41 55.48
40.24 38.30 36.82 34.88 31.98 25.01 29.03 28.35 27.27 31.14 36.60 35.56 38.62 39.80 41.15 41.36 42.07 43.60 45.00 45.85 45.04 45.33 46.79 48.06 49.65 50.14 54.09 55.59 57.35 57.27 55.97 55.39 53.77 52.55 52.02 50.32 51.43 49.51 48.88 49.58 49.89 50.87 52.32 53.73 55.22 55.27 54.28 54.91 54.87
37.83 32.60 24.70 24.37 22.91 22.98 26.85 25.74 30.48 34.39 37.26 38.89 39.19 39.53 40.31 40.86 41.17 42.03 42.27 42.27 42.65 42.67 43.50 45.06 46.13 44.74 45.94 47.56 48.76 49.22 47.65 46.83 46.27 46.01 45.29 44.63 43.83 43.81 44.33 45.31 45.61 46.26 46.80 47.50 47.86 47.91 48.13 49.05 48.75
33.25 33.14 24.77 20.67 20.25 23.36 26.19 25.64 32.07 35.55 38.26 40.48 41.22 40.21 40.40 40.22 41.33 41.65 41.88 41.61 41.77 42.01 41.79 42.53 43.20 42.50 43.23 44.06 43.75 44.29 44.22 43.64 42.89 42.73 42.39 41.79 41.25 41.37 41.75 41.93 42.39 42.90 43.66 43.95 44.27 44.60 44.70 45.54 45.17
33.26 30.42 34.58 26.57 17.23 21.26 24.40 27.70 33.85 36.75 37.68 38.50 38.82 39.76 39.33 40.33 40.83 41.16 41.39 40.87 40.76 40.71 40.92 41.09 41.83 41.77 41.88 41.83 42.64 42.12 41.88 41.16 40.24 39.88 40.24 39.73 39.59 40.71 39.80 39.64 39.67 40.36 40.87 41.22 41.13 41.15 41.10 41.66 42.01
34.87 37.13 29.43 26.81 17.20 17.22 22.54 23.82 28.07 31.71 35.94 37.07 38.05 38.65 39.32 39.99 40.20 40.38 40.53 40.51 40.55 40.37 40.20 40.32 40.71 40.58 40.32 40.47 40.74 39.91 39.22 38.91 38.35 37.83 37.52 37.57 37.86 38.13 38.00 37.74 38.01 38.16 38.51 38.89 39.10 38.85 39.21 39.15 39.10
32.58 30.73 31.38 31.98 27.31 21.61 18.51 24.65 32.76 35.30 37.85 37.56 39.07 40.31 40.01 39.97 40.14 40.32 40.42 40.38 39.96 39.43 38.96 38.40 38.74 39.00 38.64 38.93 38.39 37.69 37.14 36.99 36.98 36.68 36.50 36.27 36.32 36.52 36.47 36.28 36.15 36.27 36.34 36.76 36.54 36.39 37.12 36.96 36.70
33.67 33.99 33.53 27.83 25.26 26.07 25.75 27.26 36.58 35.39 39.25 40.26 39.93 40.94 41.04 40.96 40.33 40.36 39.80 39.17 38.35 37.67 37.62 37.66 37.46 37.80 37.50 37.10 36.73 36.47 36.14 35.74 34.97 34.65 34.92 34.88 34.10 34.76 34.88 34.79 34.60 34.64 34.95 35.07 34.78 34.72 35.43 34.92 33.98

GFSSGP_sfc_wetblb_096.txt.gz
Wetbulb
59.04 54.23 52.94 50.47 44.12 40.30 37.31 42.43 46.48 45.63 46.99 49.29 51.36 53.51 52.94 53.56 53.02 47.02 62.86 67.00 67.91 67.61 69.24 70.37 71.72 72.37 71.57 71.63 71.30 70.72 70.21 69.99 68.74 68.80 69.39 68.78 68.40 68.48 68.45 68.45 68.20 69.50 69.15 68.88 69.52 69.24 68.72 68.15 68.36
56.93 55.24 50.92 45.57 39.61 35.23 36.05 41.90 44.51 47.11 49.98 53.38 53.65 52.90 53.17 52.36 58.35 60.55 61.66 67.37 67.52 67.99 68.89 69.09 70.39 71.70 71.29 71.25 71.07 70.40 70.09 69.69 68.90 69.03 69.66 69.08 68.28 68.02 68.92 68.96 69.89 69.32 68.65 68.66 68.66 68.26 67.82 67.61 67.24
53.88 54.18 46.97 42.93 37.88 34.80 37.92 42.74 46.41 48.48 50.50 48.80 49.36 53.46 54.54 54.80 59.47 60.93 64.30 67.02 67.59 67.30 68.20 69.00 70.42 71.60 71.14 71.03 71.05 70.33 69.82 69.54 69.06 69.32 70.11 69.66 68.56 67.65 68.11 68.40 69.45 68.88 68.44 68.02 67.71 67.47 66.96 66.54 66.15
51.50 49.61 46.09 40.20 37.12 39.55 43.01 45.69 46.34 46.59 46.91 51.21 52.11 51.22 56.35 59.78 61.51 63.35 66.31 66.93 66.26 66.71 67.54 69.06 70.50 71.16 71.08 70.75 70.98 70.30 69.13 69.24 69.16 68.76 68.71 69.55 68.88 67.59 67.96 68.40 68.48 67.84 67.44 67.59 67.18 66.83 66.20 65.84 65.53
48.75 45.96 40.35 37.89 38.63 40.28 43.44 46.53 45.98 44.31 45.11 47.37 51.49 50.95 53.68 60.19 63.97 64.74 64.36 65.67 65.44 66.05 66.80 68.25 69.91 70.67 70.98 70.90 70.66 70.05 69.31 68.93 68.66 68.30 67.76 67.89 68.52 68.23 67.82 68.77 68.11 67.46 66.85 66.59 66.64 66.06 65.41 64.65 64.46
44.73 44.82 37.67 35.90 36.77 41.27 44.40 46.42 46.14 43.89 46.11 51.28 53.13 52.71 53.30 60.46 62.76 63.46 64.68 64.51 66.10 65.99 66.37 66.73 66.19 68.23 69.70 70.20 69.92 69.55 69.19 68.96 68.87 67.84 67.07 66.87 67.74 68.10 68.11 68.69 67.72 67.17 66.61 66.08 65.77 65.38 64.62 64.10 63.77
43.85 40.75 37.23 36.56 37.61 39.26 44.82 46.70 45.02 44.84 45.04 47.03 54.32 50.52 56.96 59.33 63.01 64.45 64.31 65.11 65.80 65.64 65.07 64.80 65.41 65.84 66.46 67.49 67.75 68.25 68.38 68.38 68.65 68.45 67.42 66.87 67.10 67.62 68.17 68.06 67.50 66.71 66.44 66.04 65.45 64.87 64.24 63.52 63.09
46.76 43.56 37.77 37.75 38.04 39.73 44.31 45.78 44.76 45.46 45.18 52.19 56.33 51.76 54.48 58.95 62.23 64.46 64.53 63.99 63.26 63.52 63.56 63.33 63.94 64.55 65.06 65.37 64.39 65.28 66.41 66.66 66.72 66.05 64.55 63.39 63.82 64.08 64.58 64.55 66.69 66.53 66.16 65.83 65.48 64.62 63.69 62.83 62.11
48.00 40.18 38.67 40.13 39.80 42.06 43.98 43.58 44.29 46.72 48.47 51.09 54.07 55.35 58.44 60.67 62.55 63.15 62.97 61.78 61.84 62.36 62.10 62.52 62.61 63.29 64.01 64.24 62.17 63.09 63.86 63.95 63.58 62.78 61.50 60.29 59.40 60.01 61.09 62.67 65.41 65.69 65.11 64.29 63.62 63.79 62.65 61.37 60.41
44.12 39.30 41.27 44.53 42.56 43.80 44.46 44.63 44.99 46.26 46.13 51.22 53.78 57.30 60.76 59.70 61.92 60.73 60.79 60.07 60.29 60.26 60.81 61.61 61.79 62.30 63.07 64.92 62.96 62.49 62.24 61.41 60.98 60.45 59.74 59.79 59.60 59.46 59.98 59.67 62.08 63.61 63.74 64.00 63.17 62.39 61.92 60.31 57.70
44.13 41.28 44.09 44.33 44.15 45.65 44.99 43.69 43.58 45.43 42.04 52.21 53.90 57.03 58.98 58.56 59.81 60.41 60.22 60.63 60.77 61.31 61.78 61.85 61.92 62.38 62.50 62.58 62.05 61.55 60.86 60.47 59.95 59.46 59.65 58.88 58.89 58.41 57.75 57.34 57.29 57.45 57.60 57.54 58.33 57.66 57.12 57.19 57.44
41.00 44.79 44.42 46.38 45.77 45.92 44.55 45.31 42.94 42.96 43.51 52.62 57.76 58.78 58.66 57.86 57.79 60.13 60.27 60.46 61.13 61.42 61.82 61.88 62.28 62.35 61.82 62.24 61.78 61.38 61.08 60.77 59.73 58.54 59.33 57.74 57.30 57.04 57.14 57.05 56.94 56.62 56.78 56.16 56.21 56.31 56.86 56.61 57.37
42.29 42.06 44.37 44.52 46.11 45.39 45.76 43.36 43.27 42.42 42.49 56.86 58.05 58.31 57.67 58.17 57.35 59.10 61.20 61.42 61.96 61.44 62.14 62.86 63.84 63.22 62.07 61.85 62.11 61.77 61.35 61.34 60.92 59.86 59.21 58.50 56.77 56.26 57.52 57.30 57.08 57.12 56.35 56.61 56.03 56.15 56.26 56.12 56.67
44.01 43.36 42.64 43.47 43.41 43.93 43.55 42.24 43.11 42.68 47.43 55.35 57.28 57.01 57.04 56.89 56.59 57.04 58.84 60.47 61.55 62.14 62.12 63.07 62.96 63.85 63.79 63.25 62.88 62.91 63.44 63.08 62.47 60.91 59.84 58.72 58.20 57.25 57.26 57.20 57.58 57.24 57.10 56.96 56.50 55.79 55.37 55.49 55.39
42.59 39.15 39.55 40.60 42.31 41.70 43.41 40.48 40.08 42.47 50.24 54.15 54.91 55.46 56.44 57.05 57.27 57.68 58.55 60.28 61.53 62.49 62.89 63.12 63.15 63.10 63.06 62.06 63.60 63.51 63.22 63.53 63.19 62.84 61.99 59.86 59.11 57.82 57.75 57.14 56.92 57.32 57.26 56.32 55.67 55.17 54.72 54.24 54.60
40.39 37.54 34.26 38.93 41.51 40.69 40.46 37.19 40.79 42.14 45.99 49.43 51.48 51.93 54.95 56.37 57.71 58.24 58.72 59.00 61.44 62.09 62.71 63.58 64.14 63.05 62.61 62.32 62.23 63.49 63.59 63.75 63.34 63.28 62.86 62.22 61.34 59.31 57.41 56.88 56.88 57.02 56.34 56.03 55.03 54.36 54.04 54.43 54.80
34.70 31.33 32.48 36.00 41.24 39.26 38.86 36.53 40.53 40.87 42.24 42.25 43.45 46.10 49.97 53.47 54.04 56.24 57.28 57.79 59.94 61.39 63.04 63.30 63.22 62.48 62.26 61.90 62.53 63.90 64.03 63.62 63.69 63.74 63.60 63.06 62.34 61.61 59.99 58.07 56.85 56.75 56.13 55.53 55.57 55.43 55.43 54.76 54.50
30.86 31.57 32.98 32.99 38.49 37.91 36.41 36.54 38.47 40.72 40.01 39.95 40.07 40.21 43.60 48.29 51.04 53.81 55.73 56.56 58.89 60.41 62.68 63.23 63.21 62.82 61.47 61.57 61.95 64.28 64.26 64.07 64.17 63.84 63.67 63.50 63.12 62.16 61.50 60.97 60.14 59.10 57.52 56.52 56.74 56.03 54.00 54.82 52.96
37.27 35.71 34.76 34.25 37.95 37.31 36.82 36.95 38.78 40.06 38.82 37.76 38.05 38.45 41.78 45.90 42.57 43.33 45.81 50.36 56.43 57.57 58.80 61.55 61.86 61.94 61.70 61.02 60.59 62.18 62.62 63.33 63.52 63.96 63.87 63.62 63.23 62.65 61.93 61.37 61.09 60.72 58.57 57.85 57.25 56.34 55.43 54.63 54.61
36.86 35.70 33.64 34.88 37.19 36.41 35.38 36.90 37.37 38.83 39.30 39.32 38.87 38.09 41.37 40.04 41.09 42.87 43.12 42.63 46.07 48.64 55.82 59.71 61.71 61.49 61.74 62.05 60.80 61.13 62.86 63.11 63.47 63.47 63.61 63.77 63.32 62.65 61.82 61.21 60.59 60.13 59.34 59.03 58.25 56.77 54.88 54.54 54.43
34.26 33.66 32.43 34.65 34.30 33.93 32.88 33.47 35.76 38.56 38.68 39.41 40.09 39.66 39.87 40.28 41.59 42.70 44.71 43.96 43.79 43.52 44.64 53.29 60.06 61.28 61.97 61.90 62.01 61.96 61.90 61.99 62.17 62.34 62.68 63.26 63.49 62.92 61.62 61.17 60.41 59.85 59.11 58.19 57.81 57.35 55.68 54.62 54.42
31.99 37.02 36.46 34.85 32.15 28.77 32.69 27.27 30.38 35.15 37.44 38.70 39.44 38.82 39.92 40.47 42.20 43.12 43.83 42.81 45.10 46.29 44.56 45.55 54.77 60.66 61.04 62.66 62.23 61.48 60.39 59.60 60.59 61.24 61.23 59.67 59.42 59.09 59.84 60.12 59.72 59.24 58.86 58.23 57.69 57.27 56.61 55.36 53.37
35.50 38.59 36.62 34.21 31.55 30.45 28.36 27.24 29.82 31.66 32.80 37.05 38.10 38.54 40.45 40.96 42.58 43.29 44.24 45.81 44.90 46.67 42.37 45.54 52.08 59.90 61.04 62.12 62.46 61.15 59.94 59.43 58.46 57.49 56.94 54.35 50.82 50.76 51.50 52.56 53.29 54.56 55.61 55.71 54.37 53.50 51.96 53.79 54.27
39.34 37.57 35.19 33.50 31.19 24.99 29.08 28.80 28.00 29.97 35.07 38.68 36.63 38.91 39.34 40.77 41.44 43.03 44.13 45.07 44.56 45.10 46.02 47.62 50.56 52.44 57.93 59.84 61.18 59.86 57.79 56.24 54.39 51.72 49.40 48.11 47.60 46.63 46.30 45.95 46.57 46.69 46.78 46.73 47.02 47.30 47.41 47.61 47.88
37.90 34.64 25.91 24.87 24.80 23.66 26.44 25.26 31.49 32.87 35.83 37.15 39.60 37.99 38.71 40.37 40.78 41.70 41.84 41.87 42.27 42.89 43.53 45.44 47.78 46.15 50.04 51.97 52.95 52.04 50.02 47.56 47.13 44.83 43.38 41.86 41.24 40.91 41.13 41.88 42.05 42.40 42.63 43.07 43.21 43.19 43.33 43.35 42.79
33.65 35.00 25.05 19.90 19.21 22.00 26.01 25.00 31.48 34.80 37.04 38.01 39.23 39.59 39.25 39.30 40.80 40.89 40.97 40.95 41.40 41.79 41.75 41.97 42.74 42.37 44.30 45.53 46.04 45.96 44.50 43.53 42.36 41.46 40.74 39.93 39.47 38.87 39.04 39.08 39.38 39.58 39.93 39.93 39.93 39.69 39.87 39.97 39.69
34.43 31.06 33.49 25.95 16.96 22.43 23.92 27.06 34.19 35.66 35.52 36.75 37.44 38.79 38.55 38.88 40.20 40.26 40.31 40.12 39.91 39.93 40.20 40.63 40.74 40.48 41.51 41.98 42.22 41.25 41.14 40.59 39.58 38.85 38.10 37.35 37.66 38.32 37.08 37.19 36.95 37.39 37.66 38.08 37.80 37.41 37.53 37.67 37.34
35.70 36.83 29.75 26.62 19.14 16.59 21.98 23.01 27.75 31.58 35.87 36.06 36.72 38.04 38.35 39.31 39.55 39.53 39.46 39.31 39.35 39.46 39.31 39.39 39.78 39.49 39.50 40.16 40.08 39.08 38.05 37.65 36.68 36.26 35.39 35.48 35.68 35.77 35.43 35.08 34.97 35.14 35.41 35.82 35.52 35.09 36.45 36.24 35.64
32.86 31.23 30.41 30.60 27.27 22.14 17.62 24.02 31.08 35.07 38.09 36.75 37.84 38.90 39.10 39.39 39.68 39.22 38.66 38.84 38.54 38.13 38.23 37.90 38.31 38.21 37.94 37.91 37.33 36.53 35.75 35.62 35.50 34.75 33.78 33.79 34.15 34.18 34.01 33.73 33.47 33.39 33.49 33.87 33.53 33.65 34.65 34.04 33.10
33.50 33.56 33.38 28.48 24.74 23.98 24.04 25.75 33.94 33.89 36.00 38.50 37.88 39.14 39.36 40.07 39.44 38.89 38.65 37.70 37.09 36.87 36.85 36.63 36.54 36.93 36.58 36.56 35.98 35.43 35.03 34.08 33.29 32.67 32.53 32.74 32.43 32.91 32.62 32.51 32.07 32.23 32.37 32.41 32.13 32.24 33.27 32.27 31.85

GFSSGP_sfc_wetblb_102.txt.gz
Wetbulb
58.59 52.47 50.56 49.38 41.77 39.50 36.32 40.90 43.87 44.00 44.22 50.25 51.98 49.92 50.80 51.64 49.82 44.75 60.99 65.22 66.83 67.21 69.24 69.52 71.04 71.12 70.29 70.62 70.18 69.97 70.09 69.83 68.75 68.57 68.60 68.65 68.56 69.17 69.71 69.52 70.03 69.56 69.53 68.74 68.31 67.53 67.42 66.87 66.22
52.17 52.22 49.37 43.67 38.30 33.97 36.27 38.70 44.24 45.09 50.38 52.65 51.83 51.71 51.87 49.72 56.74 61.61 62.46 66.39 67.59 68.08 68.77 69.27 70.25 70.93 70.10 70.37 69.95 69.83 70.11 70.33 69.01 68.39 69.08 68.75 69.76 69.48 68.79 69.05 69.42 69.29 68.64 68.37 67.79 67.26 66.96 66.48 66.02
52.01 50.19 46.48 40.67 35.02 34.35 35.38 41.10 44.47 47.57 52.38 47.04 50.69 53.88 52.04 53.22 59.85 61.56 64.07 66.73 67.30 67.10 68.34 68.86 70.33 70.94 70.03 70.04 69.91 70.00 70.09 70.55 69.11 68.12 68.26 68.61 69.47 69.37 68.75 68.61 67.78 67.33 67.43 67.24 66.88 66.65 66.49 66.33 65.88
49.37 48.39 45.11 39.53 35.55 37.68 38.98 42.60 45.88 47.69 46.34 52.17 53.12 51.27 53.36 58.22 60.36 62.37 66.02 66.72 65.84 66.07 67.40 69.21 70.64 70.96 69.91 69.96 69.41 69.54 69.37 69.56 70.04 68.82 67.95 68.39 68.93 69.19 67.96 67.57 67.52 66.85 66.15 66.23 66.28 65.78 65.24 65.18 65.25
47.94 44.67 38.82 35.67 36.64 37.43 39.01 45.29 44.53 43.19 44.39 47.84 50.56 50.23 51.14 59.33 63.29 65.15 65.30 65.89 64.98 65.18 66.55 68.19 69.99 70.52 70.36 69.74 69.43 69.21 69.03 68.84 69.32 68.99 67.60 67.79 68.55 68.59 67.66 66.95 66.44 66.33 66.09 65.83 65.20 64.72 64.52 64.88 64.73
45.35 42.78 36.47 34.21 35.99 39.09 42.59 45.02 43.99 42.59 46.89 50.79 52.49 51.67 52.48 59.41 62.90 63.45 64.84 64.34 64.89 65.63 66.45 67.35 67.02 68.51 69.36 69.32 69.34 69.24 69.02 68.20 68.03 68.39 68.13 67.53 68.24 68.17 67.41 66.87 66.37 65.85 65.55 65.29 64.91 64.33 64.28 64.65 63.71
44.42 40.31 35.43 35.26 34.78 39.23 43.48 45.48 41.80 44.08 47.67 48.92 55.02 50.19 54.29 59.43 61.47 62.94 63.35 64.11 64.77 64.73 64.62 65.02 66.48 66.97 66.41 67.18 67.51 68.36 68.41 68.23 67.68 67.60 67.34 68.14 68.45 68.37 67.59 67.10 66.30 65.95 65.40 64.94 64.55 63.85 63.56 63.40 62.92
44.44 40.73 35.12 35.53 36.23 39.01 42.32 44.14 43.46 46.20 42.72 52.90 54.28 48.96 54.01 58.51 61.89 63.00 63.11 62.87 62.32 62.49 63.08 63.69 64.49 65.36 65.04 64.76 64.32 65.43 66.43 66.77 66.21 65.18 64.11 63.53 64.67 65.51 65.42 64.67 66.18 65.75 65.38 64.75 64.00 63.26 62.76 62.62 62.14
47.35 38.95 35.32 37.95 39.21 39.16 41.81 41.66 41.66 45.80 49.87 49.70 52.15 52.58 55.46 61.12 62.40 61.96 61.80 61.69 60.95 61.30 61.47 61.98 63.56 63.38 63.26 63.03 61.82 62.77 63.85 63.84 62.87 61.56 60.25 59.42 59.45 60.54 62.03 62.98 64.72 64.69 64.34 64.17 63.52 62.79 62.40 60.50 59.81
44.22 38.92 40.50 42.97 42.67 39.43 42.34 42.28 44.10 46.15 47.82 48.16 50.06 55.59 60.39 61.37 61.11 59.27 58.86 58.49 58.76 59.13 60.19 60.88 62.57 62.06 62.06 63.24 61.17 60.89 61.17 60.21 59.93 58.65 57.71 58.34 58.14 58.74 60.06 59.49 61.21 62.30 62.86 63.25 62.74 62.22 60.18 58.03 56.14
44.07 40.17 43.02 43.96 44.37 43.73 42.88 41.47 43.22 45.43 43.85 49.01 51.24 54.66 59.36 59.62 59.87 59.26 58.60 58.78 57.60 57.58 59.54 60.03 60.59 61.27 61.35 60.71 59.81 59.45 58.93 58.45 58.16 57.66 57.70 57.73 57.32 56.72 56.78 56.45 56.25 56.09 56.35 55.64 56.16 55.26 55.75 55.72 55.93
42.64 44.23 43.35 44.44 44.47 44.01 42.44 42.70 42.73 44.92 44.88 46.85 54.25 57.43 59.04 58.72 59.38 59.49 59.29 57.83 57.01 57.38 58.60 59.57 60.13 60.39 60.36 60.18 59.32 58.84 58.34 57.68 57.28 57.39 57.77 56.76 56.24 55.35 55.19 55.51 55.20 55.13 55.40 54.94 54.81 55.00 55.28 55.12 55.22
43.48 43.64 43.49 44.00 44.60 43.27 43.83 41.91 41.33 42.62 44.49 51.77 56.52 57.49 58.47 59.15 59.23 59.51 59.91 59.13 57.70 57.25 58.34 59.19 59.60 60.16 60.07 59.74 59.20 58.55 58.27 57.76 57.61 57.50 57.82 56.95 56.20 55.28 55.38 55.02 55.27 55.33 55.05 55.08 54.83 54.59 54.68 54.43 54.72
44.74 44.49 43.67 43.26 42.73 43.06 42.75 39.38 40.33 40.92 51.38 53.67 55.73 55.58 57.48 58.64 58.77 57.78 58.54 58.65 58.51 58.27 58.71 59.50 59.87 60.05 59.94 59.55 59.36 59.15 59.05 59.30 58.52 57.66 57.71 57.15 56.01 55.18 55.51 55.74 55.74 55.52 55.47 55.03 55.00 54.74 54.25 54.10 53.83
44.56 41.24 41.16 41.88 42.79 41.62 41.86 38.16 39.59 40.57 52.38 52.66 53.40 54.75 54.80 56.95 57.57 58.26 59.44 59.21 59.71 59.63 59.77 59.64 60.45 60.50 59.93 59.54 59.96 59.88 60.13 60.62 59.92 60.07 59.88 58.42 57.13 55.92 55.88 55.51 55.24 55.72 55.70 55.21 54.44 54.21 53.61 53.00 53.44
40.90 39.33 33.91 38.10 40.42 40.67 41.04 36.39 40.41 45.50 51.33 50.83 51.39 51.84 53.41 54.59 56.41 58.23 59.39 59.95 60.35 60.42 60.22 60.58 61.89 60.78 60.15 59.49 60.38 61.13 61.07 61.51 62.63 62.24 61.21 60.12 59.54 58.79 56.55 55.89 55.80 55.82 55.14 54.66 54.05 55.98 55.76 54.24 54.74
43.33 35.90 32.75 36.61 39.20 38.53 38.39 37.08 39.34 43.93 50.24 49.79 50.21 50.98 52.43 52.91 53.92 55.92 58.47 59.77 60.33 60.76 60.81 60.78 60.78 60.49 60.30 59.89 60.25 60.79 62.67 62.76 62.81 62.64 61.92 61.30 61.00 60.33 58.92 58.08 57.28 56.16 55.01 54.77 55.52 56.16 55.76 55.63 55.87
38.62 36.55 34.84 34.90 37.69 36.61 35.52 37.21 37.01 38.25 48.51 49.38 50.00 50.67 51.39 52.52 54.84 55.36 56.39 58.68 60.02 60.73 60.91 61.48 61.63 60.98 60.56 60.31 59.66 60.69 62.41 62.77 63.10 62.95 62.65 62.21 61.70 61.20 60.27 60.09 59.49 58.31 57.64 57.34 56.85 56.25 55.31 56.06 55.73
43.93 37.47 35.19 35.83 38.62 37.95 36.90 37.69 39.98 37.89 36.00 43.52 46.53 47.65 49.58 51.92 53.75 54.63 55.42 56.17 57.25 59.29 59.83 60.81 60.86 60.90 60.68 58.72 60.16 60.98 61.44 62.22 62.50 62.99 63.06 63.08 62.89 62.31 61.30 60.81 60.65 60.39 59.39 58.71 58.21 57.31 56.39 55.99 55.26
37.78 39.81 37.80 36.09 37.71 36.76 36.18 37.31 36.59 36.25 37.43 39.02 43.74 42.91 46.53 45.50 45.89 48.34 49.22 52.99 54.15 57.50 59.58 60.76 61.37 61.35 61.30 61.63 59.70 60.00 61.08 62.56 63.06 63.12 62.90 62.97 62.74 62.48 61.64 61.04 60.41 60.39 59.59 59.02 58.21 57.47 55.85 55.05 55.36
37.80 35.15 34.65 35.47 35.00 33.92 33.47 34.90 34.25 36.16 35.69 37.16 37.76 38.81 40.03 44.23 45.39 44.14 43.84 45.93 51.52 54.47 57.18 59.88 61.30 61.76 61.81 61.38 59.71 61.17 61.66 61.65 61.43 62.04 62.42 60.43 61.32 61.41 61.01 61.02 60.35 59.52 59.20 58.23 57.74 57.18 55.80 54.10 54.30
33.87 37.98 37.04 34.54 34.48 30.77 32.43 27.09 32.44 33.83 36.04 36.06 37.74 36.31 37.26 37.98 41.12 43.09 42.69 43.05 43.71 49.68 52.80 57.56 60.19 61.34 61.55 60.77 60.66 60.93 60.38 59.31 60.05 60.39 56.09 53.53 54.52 54.93 56.05 56.98 57.19 57.11 56.71 55.48 54.33 53.47 52.62 52.95 49.43
37.64 38.13 36.51 35.49 32.87 30.67 29.10 26.83 32.37 29.86 32.68 34.23 36.45 37.42 38.89 39.00 40.31 42.67 42.52 43.71 43.79 44.38 44.99 47.13 56.24 58.91 60.24 60.88 61.31 60.87 60.30 59.72 58.20 54.02 51.38 49.87 49.00 49.66 49.97 50.36 50.22 49.50 49.30 48.41 47.59 45.29 44.82 45.82 47.06
39.02 36.86 35.18 33.79 30.57 25.03 31.29 27.87 28.05 31.68 32.65 35.57 37.97 38.28 39.85 38.21 38.35 40.72 42.31 44.22 45.61 45.96 44.60 42.74 46.72 57.71 58.71 59.98 61.02 61.22 59.97 57.70 55.11 51.51 48.88 46.77 45.72 45.14 45.06 44.90 44.49 42.69 42.43 42.22 41.84 40.95 40.46 40.19 39.45
38.76 34.08 26.44 25.72 22.42 24.74 26.34 25.37 34.06 33.23 34.44 36.87 40.19 40.70 40.30 37.46 37.82 40.04 42.34 43.26 44.21 44.92 44.85 43.85 46.22 51.16 58.95 59.29 60.27 61.19 59.00 57.27 54.95 50.61 46.99 44.00 42.33 41.40 40.79 39.73 38.86 38.45 38.74 38.30 38.62 37.95 37.10 36.13 35.36
35.09 34.81 25.59 19.82 20.43 25.08 25.24 24.95 31.15 35.68 35.78 35.86 36.61 37.10 37.05 37.45 38.60 40.18 41.97 42.66 43.60 44.50 43.91 44.71 46.28 48.45 55.96 59.37 59.63 58.38 57.70 55.42 52.10 48.30 45.35 42.79 40.98 39.25 37.15 36.46 36.14 36.04 35.99 35.61 36.17 35.94 35.62 33.83 33.50
33.95 33.54 33.77 25.77 18.19 21.05 24.43 27.64 32.81 33.93 35.05 35.93 36.82 35.60 36.44 37.34 39.11 40.57 41.17 42.09 43.17 43.51 43.19 43.78 45.14 48.05 50.18 53.21 52.41 51.06 49.03 47.60 44.63 42.21 40.88 39.64 37.09 36.12 34.83 34.32 33.75 33.82 34.01 33.97 35.01 34.27 33.27 32.43 32.20
35.90 37.80 29.70 29.24 17.71 17.41 21.62 22.43 28.98 30.30 35.57 36.75 37.02 37.39 37.62 37.13 38.71 40.14 40.60 40.61 41.39 41.41 41.14 41.31 42.42 45.45 45.91 46.96 47.69 46.36 44.32 42.85 40.78 39.34 36.52 36.45 34.48 33.56 32.78 32.37 32.25 32.08 32.21 32.61 33.02 32.58 31.98 31.15 31.31
32.77 32.17 32.12 32.31 28.03 21.95 19.22 25.58 30.57 34.90 36.74 38.03 38.40 39.30 38.48 37.55 39.22 40.16 39.70 39.25 39.69 39.52 39.12 39.29 39.44 41.10 42.36 41.89 41.63 41.42 40.02 39.15 38.02 36.02 34.62 33.59 32.50 31.70 31.41 31.48 31.31 31.27 31.02 30.96 30.86 31.26 30.83 30.03 30.02
36.86 34.96 35.29 29.30 25.37 22.95 24.53 27.79 32.21 33.53 34.11 35.40 35.76 37.97 38.14 38.85 39.30 39.56 38.70 37.87 37.95 38.20 37.83 38.14 37.47 37.65 39.70 40.18 40.05 38.49 37.41 36.78 35.71 33.36 32.24 31.79 31.06 30.94 30.49 30.44 30.34 30.18 30.36 30.23 29.88 29.72 29.50 29.07 29.08

GFSSGP_sfc_wetblb_108.txt.gz
Wetbulb
61.09 59.47 60.65 59.67 51.10 50.97 47.06 48.94 53.70 52.15 52.48 55.36 57.11 57.17 57.10 58.26 55.55 52.56 66.21 67.48 69.62 69.72 70.40 71.07 71.06 70.91 70.19 70.16 70.28 70.19 69.84 69.84 69.88 70.14 70.27 70.34 70.77 69.99 69.55 69.29 69.66 68.29 67.74 67.77 67.13 66.81 66.39 65.72 65.21
58.81 58.21 60.26 56.22 49.10 44.85 47.14 51.02 51.34 53.21 56.10 58.07 58.08 58.18 57.41 56.82 60.05 62.21 64.61 68.12 69.86 70.00 70.63 70.38 69.99 70.67 70.20 70.25 70.14 70.04 69.99 69.95 69.56 69.62 70.03 70.00 69.95 69.47 69.09 68.82 69.24 68.19 67.25 67.54 67.04 66.38 66.17 65.39 65.03
57.48 57.10 56.46 52.39 48.60 45.24 45.99 50.06 53.54 55.61 56.06 56.43 56.42 59.11 58.27 57.39 61.03 63.01 67.07 69.09 69.83 69.90 70.49 69.85 69.96 70.44 69.99 69.61 70.34 70.13 70.18 70.03 69.98 70.17 69.24 69.14 68.56 68.09 67.92 68.08 67.61 66.84 66.51 66.36 66.64 66.37 65.86 64.99 64.47
57.84 57.83 54.35 48.90 44.85 47.35 47.20 51.19 54.25 55.18 54.31 56.54 57.89 55.59 60.55 63.36 62.11 65.19 68.13 69.21 68.75 69.36 70.21 69.39 70.11 70.25 69.79 70.14 70.76 70.06 69.88 69.03 69.33 70.26 69.25 68.88 68.47 67.80 66.86 66.34 66.35 65.88 66.11 65.77 65.99 66.05 65.35 64.58 63.86
58.53 56.63 49.47 46.62 45.83 47.09 48.07 51.02 55.36 54.44 54.25 56.44 57.00 55.24 57.55 62.68 65.93 66.98 68.20 68.75 68.26 68.96 69.97 69.75 69.66 69.89 70.07 70.26 70.33 70.51 70.10 69.06 69.18 69.22 68.88 68.01 67.44 67.01 66.76 66.35 65.91 65.88 65.50 65.42 65.77 65.49 64.70 64.08 63.55
54.74 54.20 46.85 44.72 45.66 46.92 50.63 53.73 55.45 53.62 54.46 56.34 56.05 56.79 58.52 64.09 64.17 66.33 68.01 68.19 68.91 68.99 69.77 69.68 67.15 68.29 68.95 69.40 69.95 70.08 69.69 69.27 69.22 69.28 68.85 68.10 67.34 66.88 66.34 66.16 65.98 65.66 65.27 65.18 65.38 64.65 64.13 63.75 63.31
53.18 51.47 47.26 46.11 45.62 46.59 50.41 53.88 53.79 53.33 53.98 54.76 59.18 55.37 58.96 62.09 64.88 66.98 67.60 68.05 68.41 68.42 69.30 69.94 68.91 67.66 66.37 67.20 67.71 68.53 69.10 69.00 69.12 69.03 68.96 68.29 67.85 67.26 66.73 66.39 65.64 65.39 64.91 64.49 64.35 63.93 63.70 63.31 62.76
53.07 52.90 45.83 46.83 46.11 46.18 51.57 51.96 51.17 53.53 52.94 59.14 60.32 54.57 56.57 61.22 64.91 65.90 66.20 66.26 65.72 67.52 68.66 69.50 69.33 68.32 67.74 67.90 64.58 65.49 66.49 66.33 66.45 66.05 65.20 64.77 65.17 65.35 65.11 64.72 65.77 65.07 64.44 63.67 63.43 63.25 62.79 62.43 62.00
52.24 47.80 45.94 46.48 45.75 47.39 51.52 50.81 51.11 54.61 55.91 57.04 58.60 57.85 61.45 63.81 64.57 63.96 63.16 62.70 63.40 65.61 67.37 68.59 68.64 68.12 67.34 67.31 65.25 63.44 63.15 63.26 62.88 62.79 61.84 63.66 65.99 65.44 64.36 62.93 64.64 64.61 63.99 63.66 63.26 62.45 61.50 60.64 60.65
52.60 48.67 48.19 48.63 48.54 47.72 48.96 50.83 51.08 53.13 54.45 55.15 57.09 59.73 63.09 63.27 62.90 61.62 61.52 60.71 61.29 62.38 65.15 66.71 68.39 67.71 66.69 66.15 67.08 66.63 64.25 64.91 65.69 65.95 65.82 65.76 65.58 64.76 63.26 60.25 60.23 61.00 62.31 62.86 61.98 61.00 59.77 61.88 63.35
50.75 49.31 49.73 47.54 49.07 48.64 47.82 48.45 52.20 51.94 51.77 54.35 55.35 58.36 59.98 61.46 62.06 61.19 61.46 62.01 62.78 62.70 63.77 65.48 67.61 67.64 66.36 65.56 66.18 66.11 65.18 64.15 64.86 65.39 65.29 64.87 64.64 64.37 64.05 63.55 63.51 63.01 59.01 62.24 62.61 63.24 63.06 62.54 62.81
47.92 50.07 50.59 48.30 47.90 48.15 47.69 48.42 49.53 52.34 53.00 54.14 58.00 60.73 59.77 60.11 60.53 61.75 60.97 62.04 62.34 61.87 62.72 64.50 67.14 67.07 66.41 65.53 64.86 64.82 64.14 63.96 63.00 63.57 63.97 64.00 63.63 63.44 63.43 63.49 63.53 64.23 64.57 63.75 64.12 63.89 63.27 62.87 62.53
48.66 47.67 48.52 47.34 47.88 48.06 47.74 47.82 48.82 50.61 52.95 54.44 59.28 60.66 59.83 60.21 61.81 62.93 62.71 63.34 62.43 61.87 62.54 63.29 64.84 66.95 66.07 64.79 64.31 63.64 63.14 63.16 63.24 63.64 63.92 64.53 63.77 63.01 63.26 63.53 64.44 64.76 64.70 64.44 64.41 64.24 63.78 63.51 62.82
50.22 49.49 48.01 48.18 48.57 48.21 46.70 47.40 47.40 50.99 54.54 55.43 58.68 59.54 59.99 60.51 61.87 61.13 62.71 62.02 60.82 61.45 63.07 63.25 63.31 66.34 65.95 64.81 63.88 63.42 63.03 63.31 63.82 64.36 64.10 63.72 64.00 63.78 64.22 64.18 64.34 64.73 64.94 64.79 64.46 63.89 63.51 63.19 62.94
48.06 47.58 49.48 47.11 45.88 46.68 47.43 45.66 45.61 50.60 54.40 54.94 57.40 58.96 59.45 61.01 61.34 60.52 62.77 62.22 61.15 61.25 62.05 63.43 63.98 64.64 65.53 64.98 64.42 63.93 63.57 63.12 64.04 64.30 64.32 63.93 63.60 63.21 63.73 64.27 64.19 64.64 64.75 63.98 64.21 63.78 63.17 62.68 62.62
45.87 47.26 43.27 50.11 45.47 44.54 48.41 44.23 49.09 50.31 53.65 53.67 56.28 58.48 58.45 59.34 59.95 61.53 62.99 63.54 63.84 62.45 60.94 62.11 63.31 64.58 65.08 65.07 64.87 64.07 64.14 64.03 64.09 64.63 64.96 64.32 62.48 62.47 63.47 64.27 64.19 64.56 64.25 63.91 63.68 62.92 60.65 62.47 62.57
44.84 41.11 43.65 46.73 46.35 45.90 46.13 45.51 46.92 48.30 52.33 53.11 55.55 57.09 58.37 59.28 59.06 61.35 63.55 64.16 64.49 64.11 61.74 61.41 62.08 62.64 64.11 64.54 64.18 64.11 63.96 64.93 65.67 66.00 65.26 63.90 62.20 61.94 61.96 62.16 62.52 61.25 62.69 62.66 61.60 60.43 60.07 60.96 60.99
39.21 41.75 43.25 44.86 44.84 43.37 44.05 43.83 48.09 46.33 49.49 51.87 54.37 56.37 57.26 58.69 59.38 62.16 63.27 64.41 65.04 65.00 63.55 62.02 62.29 62.45 63.01 63.48 63.64 63.99 64.20 64.88 65.99 65.66 64.03 62.99 62.21 61.93 61.71 61.62 61.63 60.86 60.88 61.11 60.17 59.77 60.54 60.94 60.85
45.17 45.04 44.67 44.79 42.83 42.73 44.45 44.78 46.76 48.54 46.15 49.56 52.32 54.74 56.32 57.49 60.24 62.17 62.96 64.09 64.54 65.07 64.27 62.68 61.65 62.55 62.85 63.14 62.89 63.05 63.10 63.98 64.54 64.68 64.13 63.22 62.86 62.60 62.14 62.31 62.14 62.61 61.79 61.83 61.17 60.72 60.20 61.03 60.54
45.93 43.95 45.15 47.43 44.90 43.11 44.48 43.01 46.11 47.40 45.91 47.17 50.07 52.97 55.03 56.88 58.15 59.82 61.07 62.89 63.39 64.16 64.53 64.22 63.12 62.91 63.47 64.11 64.28 64.42 64.08 64.72 64.76 64.86 64.19 64.01 63.99 63.54 62.94 63.10 63.06 62.99 62.50 62.13 61.10 60.14 59.22 59.00 58.96
42.45 42.56 44.42 44.32 40.88 41.53 42.70 44.11 46.99 48.94 45.53 46.12 46.70 50.74 54.28 56.06 56.74 58.11 59.48 60.91 62.41 63.16 63.89 64.10 64.38 64.22 64.20 64.58 64.80 64.68 64.59 64.03 63.60 63.20 63.97 63.86 64.66 64.05 63.69 63.31 63.93 63.28 63.06 61.53 60.42 60.00 59.35 56.62 56.95
39.08 43.55 43.91 43.06 40.40 38.40 43.71 36.70 46.48 49.26 49.14 44.68 45.68 46.49 49.49 54.18 56.94 58.13 58.51 59.48 60.97 61.99 64.08 64.28 64.76 64.73 64.64 64.80 64.07 63.54 62.83 62.16 63.08 63.83 64.02 62.27 62.58 63.33 62.99 62.55 62.50 61.40 60.67 59.17 58.34 58.40 59.56 58.18 55.41
40.78 42.91 41.23 38.07 39.14 33.96 38.21 33.15 43.12 43.99 43.43 45.65 46.00 46.90 47.28 49.76 54.43 56.66 56.83 58.26 60.23 61.59 62.46 63.21 64.20 64.43 64.74 64.84 64.66 64.50 63.61 64.23 64.62 61.96 59.34 57.81 56.84 58.25 58.24 58.81 58.12 57.03 55.83 54.69 53.78 54.03 54.74 55.14 52.37
43.64 38.83 37.98 36.53 35.88 31.10 37.16 34.45 40.45 44.13 44.34 47.40 47.69 47.07 47.87 48.11 48.40 52.54 56.28 57.70 57.45 58.36 60.29 61.72 62.40 63.25 64.40 64.51 64.44 64.23 63.91 63.92 62.44 59.94 58.66 55.51 53.71 52.57 52.72 52.71 52.59 51.92 51.58 51.81 51.61 50.58 50.02 48.88 47.27
40.37 38.60 29.97 28.66 29.19 33.02 34.78 34.88 40.34 46.48 45.46 47.59 48.29 48.59 48.42 48.82 48.03 47.62 48.42 51.00 54.02 54.40 54.73 58.36 60.30 60.82 62.90 63.58 63.84 64.18 64.33 64.22 62.35 60.60 59.83 55.56 52.52 48.46 48.23 48.44 47.18 47.61 48.76 48.62 47.59 46.43 45.35 44.60 43.68
37.84 38.64 31.99 27.64 27.73 33.37 30.16 31.69 39.53 43.99 43.66 46.96 45.19 46.84 47.18 47.98 48.03 47.48 46.72 48.36 50.00 51.72 53.84 54.23 54.70 58.06 61.03 62.11 62.42 63.30 64.12 63.95 63.10 61.91 59.05 55.67 52.18 48.34 46.51 46.21 44.76 44.91 46.16 45.14 44.43 43.29 42.94 42.45 42.12
36.74 34.60 39.86 31.79 25.72 28.48 34.48 37.12 41.55 42.87 43.22 42.95 43.88 44.51 45.15 46.58 46.16 45.75 46.61 46.91 48.21 49.27 51.47 52.90 51.91 53.61 57.87 60.49 61.22 61.14 61.76 61.94 61.28 60.16 57.30 54.09 49.09 43.98 42.96 43.44 42.55 43.43 43.05 42.85 42.12 41.50 40.25 40.73 40.10
40.81 41.54 32.87 33.49 27.57 26.71 34.45 33.26 36.64 40.33 41.44 44.08 43.91 45.17 46.91 46.92 45.48 45.48 45.13 45.77 46.88 49.01 50.69 51.89 51.50 51.69 53.44 58.26 59.69 59.74 60.71 60.83 59.24 57.17 53.49 48.76 45.71 41.51 41.89 42.46 41.91 41.32 41.61 41.35 40.59 39.40 39.13 38.65 38.49
37.12 36.26 36.73 36.72 33.53 29.56 28.73 35.41 42.01 42.25 43.36 42.42 43.15 43.90 44.29 45.57 46.58 47.22 46.74 46.64 46.77 47.88 49.54 50.42 49.75 50.57 51.28 52.48 57.81 58.45 56.37 55.53 52.44 50.48 47.84 45.61 43.89 40.48 40.29 40.93 40.10 39.61 39.64 39.67 38.68 38.09 37.78 37.49 36.39
40.70 38.04 37.51 33.52 29.77 32.80 29.59 33.77 41.02 41.51 41.04 40.84 42.69 43.28 44.80 45.38 45.84 46.11 45.87 45.91 45.94 46.51 48.08 48.06 48.46 48.70 50.27 51.30 53.66 54.54 52.04 47.40 46.99 44.93 42.89 41.50 39.90 40.01 38.16 39.11 38.37 38.25 38.21 38.08 37.28 35.99 36.27 35.96 35.42

GFSSGP_sfc_wetblb_111.txt.gz
Wetbulb
64.53 61.58 61.13 59.90 52.49 51.63 48.83 49.44 54.06 52.82 53.68 56.87 59.63 58.38 58.17 59.70 56.96 53.45 66.07 68.87 69.99 68.99 69.74 70.79 70.60 70.03 69.55 70.16 70.44 69.93 69.95 70.53 70.80 70.03 70.35 70.36 69.91 69.42 69.15 68.41 68.68 68.17 67.57 67.08 66.95 66.52 66.04 65.60 65.41
60.94 59.75 60.32 56.83 50.00 47.45 48.41 51.92 51.40 54.34 57.44 59.32 59.36 58.97 58.09 57.83 61.86 62.54 64.18 68.86 70.10 69.42 70.12 70.14 69.93 70.10 70.12 70.40 70.04 69.71 69.91 70.54 70.20 69.56 69.85 70.06 69.52 69.18 68.90 67.78 68.15 67.59 67.43 66.63 66.52 66.18 65.63 65.35 65.35
59.06 58.62 56.21 53.29 50.24 47.12 47.31 51.22 54.30 56.81 57.91 57.70 57.64 60.51 59.36 58.81 62.41 63.95 67.13 68.23 68.95 69.36 69.72 69.60 69.90 70.11 69.66 70.09 70.13 69.93 70.07 70.28 70.13 69.67 69.45 68.94 68.46 67.82 67.87 67.42 66.85 66.65 66.65 66.62 66.36 65.90 64.92 64.68 64.87
58.32 58.30 56.07 49.72 48.21 49.25 49.09 51.84 55.80 56.09 56.12 58.37 58.59 56.61 61.38 64.81 62.91 65.28 68.26 68.43 68.83 69.12 69.23 69.13 69.91 69.80 69.53 69.92 69.83 69.60 69.61 70.00 69.92 69.57 69.09 68.28 67.47 67.13 66.71 66.37 65.98 65.93 65.84 66.25 66.01 65.29 64.69 64.02 63.85
58.28 56.83 50.65 48.67 48.82 49.59 50.49 51.33 55.61 55.68 55.87 57.34 57.94 55.82 58.62 63.19 65.82 66.54 67.74 68.11 67.20 67.87 68.59 68.61 69.49 70.04 70.27 70.45 70.00 69.93 69.58 69.73 70.28 69.37 68.39 67.94 67.34 66.80 66.40 65.65 65.51 65.62 65.77 65.79 65.41 64.88 64.35 63.76 63.17
55.19 55.36 48.24 46.71 48.83 49.31 51.30 54.21 55.32 56.23 56.33 57.28 55.96 56.64 58.98 64.22 65.54 66.03 67.35 67.44 67.57 67.80 68.26 67.99 66.86 68.22 69.25 69.41 69.61 69.73 69.40 69.03 69.67 68.91 67.93 67.17 66.77 66.47 66.10 65.64 65.45 65.34 65.51 65.37 64.89 64.38 63.97 63.50 62.75
53.44 51.64 47.81 49.27 48.73 48.41 50.70 56.17 55.53 55.08 55.28 55.54 58.68 54.39 60.56 61.94 65.50 66.44 66.78 67.61 68.09 68.00 67.88 68.15 67.61 67.22 66.40 67.50 67.91 68.68 69.16 69.10 69.16 69.06 68.25 67.48 67.33 66.87 66.36 66.04 65.37 64.96 64.79 64.64 64.32 63.92 63.45 63.02 62.34
54.71 53.85 48.62 49.42 48.16 47.95 53.09 54.89 55.47 55.07 54.13 59.96 60.28 54.38 56.97 61.92 65.25 66.18 66.23 66.61 67.07 67.81 67.82 68.01 67.48 67.09 66.87 67.60 64.58 65.64 66.23 66.89 66.83 66.42 65.50 64.68 64.99 65.26 65.17 64.49 65.34 64.53 63.89 63.77 63.45 62.86 62.51 62.33 61.81
55.24 49.92 48.21 48.53 48.97 49.70 53.74 52.81 53.82 56.43 56.28 57.75 59.38 58.12 62.30 64.74 64.81 64.53 63.85 64.01 64.26 65.80 67.14 67.98 67.56 66.66 66.49 66.56 64.76 63.47 63.37 63.92 63.62 63.73 62.80 63.02 65.17 64.82 64.11 63.05 64.70 64.16 63.78 63.46 62.83 62.14 61.14 61.05 61.29
52.06 50.04 49.87 52.24 50.93 49.47 51.82 53.29 53.35 53.47 54.86 55.54 57.63 60.57 64.23 63.25 63.16 62.42 62.17 61.31 62.32 63.32 65.58 67.12 67.52 66.39 66.09 65.71 65.92 65.26 65.07 65.97 66.28 66.06 65.97 65.53 65.04 64.09 62.43 60.49 61.31 62.51 63.32 62.60 61.76 60.85 61.03 61.21 63.24
52.91 50.23 53.75 50.08 50.43 50.70 49.73 50.17 53.48 53.00 51.83 54.47 55.47 58.84 62.10 61.14 61.90 62.53 61.92 62.33 62.37 63.67 64.20 65.90 67.99 66.71 65.53 65.07 65.51 64.72 63.84 64.68 65.62 65.87 65.65 65.15 64.12 63.69 63.68 62.96 62.36 61.99 59.38 62.49 62.53 63.02 63.02 63.09 62.97
48.05 53.71 54.52 50.93 49.76 49.81 49.42 50.58 49.97 52.29 53.65 55.49 57.09 60.97 61.57 60.35 61.00 62.58 62.45 63.01 62.75 63.00 63.39 65.11 66.50 66.41 65.37 65.20 64.92 64.70 63.61 63.54 64.21 65.21 65.00 64.41 63.86 63.63 63.53 63.44 63.89 64.32 64.33 63.81 64.05 63.55 63.32 63.14 63.03
48.39 52.59 51.66 50.56 49.58 50.00 50.01 49.14 49.53 51.07 54.63 55.66 58.47 61.01 60.57 60.12 60.96 63.70 63.97 64.12 64.20 62.74 63.12 64.05 65.44 66.14 65.88 64.33 64.20 63.82 63.49 63.11 62.90 63.47 64.26 64.25 63.65 63.14 63.46 63.78 64.27 64.33 64.33 64.06 63.95 63.82 63.60 63.49 63.10
52.34 52.14 50.25 50.15 50.36 50.10 49.77 49.45 48.83 52.00 54.25 55.05 58.37 59.89 60.83 60.98 61.17 63.66 63.79 63.33 63.78 63.77 63.17 63.72 64.06 65.51 66.32 64.03 63.87 63.19 63.29 63.29 63.25 63.84 64.12 64.35 64.02 63.88 63.84 63.73 63.96 64.25 64.51 64.42 64.12 63.61 63.07 62.72 62.93
51.00 47.87 48.71 49.11 50.72 50.76 50.43 49.56 47.78 52.42 53.45 54.16 56.61 59.12 60.79 61.35 63.01 63.60 64.11 63.93 64.33 63.73 63.95 63.30 63.85 64.25 65.90 64.55 63.64 63.57 63.32 63.32 63.88 64.55 64.58 64.12 63.99 63.48 63.56 63.86 63.77 64.09 64.51 64.00 63.98 63.36 62.98 62.27 62.29
48.09 49.01 44.04 50.06 49.62 50.52 49.49 45.92 52.83 52.87 52.29 53.00 55.19 57.62 59.43 60.87 62.76 63.92 63.99 64.76 64.63 63.57 62.48 63.79 64.13 64.11 65.56 64.79 64.26 63.82 63.83 63.10 63.95 64.41 64.63 64.50 64.44 64.12 63.95 63.48 63.58 64.30 64.19 63.87 63.19 62.61 61.68 61.70 61.09
46.08 43.08 44.10 47.77 51.60 50.85 47.90 47.91 53.64 51.18 51.56 52.28 54.13 56.16 58.57 59.76 61.62 63.03 64.08 64.58 63.79 62.01 61.45 61.76 63.47 64.17 64.93 64.74 64.61 64.30 64.03 63.78 64.03 64.85 65.27 64.81 64.08 63.75 63.34 62.96 63.65 63.59 62.93 62.87 62.37 60.89 60.97 60.98 60.18
40.85 42.53 45.01 46.47 48.71 47.23 47.55 47.05 52.29 49.74 50.32 51.58 53.42 55.45 57.07 58.72 59.94 61.78 63.43 64.56 65.05 64.68 62.60 61.34 62.19 62.83 63.98 64.52 64.46 64.18 64.13 63.95 64.98 65.09 65.07 64.62 63.88 63.39 62.91 62.86 62.84 61.95 61.56 61.01 60.79 60.44 61.44 61.06 59.86
47.57 43.74 45.67 48.50 49.25 45.48 46.85 48.18 51.01 52.90 50.25 49.68 51.19 53.52 55.80 57.22 60.37 61.83 63.09 64.52 64.77 65.26 64.42 61.71 61.07 61.68 62.57 62.78 62.31 62.45 62.26 63.55 65.03 66.04 65.57 64.52 63.72 63.17 63.04 62.66 62.62 62.03 61.76 62.11 61.84 62.10 60.59 59.91 60.22
46.83 45.67 45.44 48.84 44.71 44.02 47.10 46.74 48.91 50.61 51.84 50.39 50.53 51.51 53.75 56.41 58.05 60.35 61.99 63.67 64.11 64.57 64.78 63.55 61.56 61.77 62.40 62.93 63.27 63.81 64.11 64.55 65.05 66.07 65.44 64.71 64.01 63.57 63.39 63.07 63.16 63.25 62.67 62.36 61.79 60.42 59.80 59.56 59.17
45.63 44.85 45.98 45.91 45.81 46.69 46.28 45.25 48.20 51.64 51.08 51.07 50.33 50.91 52.57 54.45 56.43 58.37 60.20 62.26 64.08 64.32 64.94 64.77 63.57 62.27 62.61 63.06 63.93 64.72 64.70 64.75 64.51 64.78 64.60 64.28 64.51 64.63 64.46 63.49 63.71 63.25 62.99 62.56 61.89 60.27 59.63 58.25 57.63
41.73 46.03 46.64 44.52 42.77 39.95 45.72 38.25 47.24 51.02 51.59 51.30 50.66 50.19 50.61 52.93 56.04 57.84 59.25 60.58 62.54 63.80 65.53 65.76 65.62 64.57 63.64 63.91 63.97 63.52 63.07 62.00 63.68 64.28 64.55 64.48 64.98 64.59 64.41 63.99 63.32 63.42 63.09 61.11 59.68 59.49 59.90 59.29 56.94
42.54 47.03 44.97 40.74 40.29 38.88 42.20 38.50 43.94 48.54 48.33 50.70 52.80 51.67 51.08 52.32 55.03 56.80 58.59 59.78 61.63 63.60 64.28 65.43 65.61 65.22 65.20 64.89 64.77 64.24 62.93 64.04 64.73 64.36 63.88 64.03 64.00 64.13 62.42 62.33 62.06 60.80 59.41 57.81 55.55 55.61 57.57 57.92 55.88
45.22 40.42 39.61 40.07 39.07 34.09 40.51 40.09 40.54 44.98 47.54 49.29 51.39 52.93 53.53 51.83 53.00 55.90 58.68 60.22 60.80 62.22 63.22 64.33 64.26 64.49 65.46 65.43 65.24 64.52 63.89 63.80 63.82 63.56 62.79 61.59 60.21 58.67 58.47 57.92 58.45 56.95 55.88 53.91 54.37 55.21 54.26 52.37 50.43
41.95 41.21 32.56 31.69 31.94 31.81 38.46 38.80 41.52 47.52 50.02 50.05 48.80 51.65 52.90 52.93 52.10 53.25 55.80 58.25 59.32 60.37 61.83 62.42 63.30 63.24 64.81 65.26 64.30 64.49 64.60 64.80 64.11 63.68 62.06 60.46 58.55 55.96 55.81 54.68 53.85 53.08 52.77 51.76 51.71 50.59 48.78 47.27 45.42
39.19 40.14 34.12 29.13 29.96 34.49 34.05 34.73 41.13 47.96 47.98 45.42 50.08 48.98 49.50 51.04 52.81 52.64 52.85 55.87 57.90 59.08 60.22 61.19 61.19 61.93 63.15 64.18 64.49 64.75 64.63 64.71 64.46 63.62 62.35 61.18 58.87 57.74 56.22 52.20 50.11 49.70 49.65 48.68 48.51 46.69 44.89 44.69 43.77
38.16 36.26 42.30 34.71 29.25 31.91 37.12 40.17 44.53 46.64 46.51 47.45 47.05 47.93 48.57 48.11 49.54 50.81 51.81 52.06 52.35 54.69 57.27 58.15 58.87 60.28 61.71 62.80 63.62 64.04 64.51 64.43 63.78 63.16 62.95 62.19 59.33 54.74 51.54 49.04 46.46 47.23 47.21 45.97 45.02 43.46 41.85 42.26 42.02
42.61 43.52 34.78 36.11 30.04 28.07 35.59 38.04 39.50 42.44 44.89 47.25 46.95 47.07 48.55 49.36 49.21 48.63 48.69 49.46 50.87 51.36 52.77 54.50 56.58 57.04 58.59 60.95 62.35 62.56 62.83 62.85 63.21 62.26 61.18 59.68 55.44 48.89 48.27 45.79 45.14 44.59 44.82 43.58 42.99 41.79 41.36 40.37 40.11
38.36 37.14 39.47 40.07 37.35 31.31 30.61 36.72 44.18 45.34 45.48 45.25 44.55 44.60 45.85 46.90 47.90 48.45 49.30 49.78 49.62 50.16 50.93 51.95 53.06 54.15 55.24 57.09 60.05 61.00 60.39 60.69 61.41 59.65 57.51 55.12 49.93 46.60 45.14 43.80 44.10 43.02 42.76 41.78 40.63 39.94 39.38 38.50 37.52
42.53 39.51 39.75 35.11 31.53 35.41 34.68 35.44 43.63 44.17 44.30 44.25 44.33 45.29 46.72 47.68 48.34 48.61 48.97 49.03 48.94 48.96 49.52 50.02 51.73 52.42 53.13 54.27 56.27 59.21 58.62 56.00 56.59 53.72 50.34 47.82 46.09 45.01 43.35 42.18 40.73 41.23 40.49 39.87 38.96 37.57 37.90 37.17 36.28

GFSSGP_sfc_wetblb_114.txt.gz
Wetbulb
61.85 60.50 59.36 57.36 49.07 48.61 45.89 47.62 50.76 50.80 51.55 54.68 57.86 56.93 56.27 57.07 55.92 52.07 64.47 68.51 68.47 68.71 69.83 69.43 70.35 70.33 70.24 70.73 70.76 71.08 71.50 71.14 70.81 70.80 70.50 69.89 69.63 68.98 68.17 68.28 67.39 68.18 67.30 67.07 66.71 66.49 66.27 65.89 65.61
57.90 58.80 57.73 54.28 45.71 43.95 45.03 49.39 49.74 53.09 54.79 57.43 57.39 56.59 56.83 55.16 60.58 61.09 62.09 67.70 68.72 68.61 69.42 68.69 69.42 70.45 70.37 69.96 70.14 70.71 71.29 71.11 70.85 70.24 70.30 69.96 69.65 68.58 67.77 67.57 67.52 66.92 66.73 66.68 66.21 65.99 65.94 65.53 65.09
59.09 57.97 52.66 50.13 47.29 43.45 44.40 48.59 52.50 54.71 55.80 55.90 55.09 58.37 57.78 57.33 61.19 61.84 66.11 68.19 68.46 68.34 68.76 68.69 69.59 70.32 70.42 70.22 70.22 70.17 70.61 70.34 70.34 70.35 69.33 68.82 68.33 68.08 67.34 67.07 66.74 66.60 66.68 66.32 66.03 65.42 65.33 64.86 64.21
56.33 55.37 53.19 45.75 45.49 47.47 46.88 49.46 54.49 53.52 53.55 56.92 56.57 54.48 59.12 62.93 61.60 63.46 67.32 68.27 67.89 67.96 67.93 68.91 69.77 70.44 70.48 70.22 70.29 70.17 70.39 70.53 70.20 69.31 68.46 68.10 67.57 67.15 66.63 66.27 65.97 66.23 65.70 65.96 65.67 65.04 64.38 63.83 63.26
55.83 54.04 47.27 45.50 46.96 47.81 47.44 48.87 52.30 53.33 53.00 54.60 54.51 53.65 56.34 61.29 64.56 65.80 66.86 67.90 67.10 66.76 67.09 67.90 69.46 70.13 70.39 70.30 70.32 70.08 69.97 70.53 69.62 68.99 68.25 67.40 67.08 66.27 65.87 65.71 65.89 65.80 65.63 65.46 65.16 64.72 64.05 63.54 63.02
51.80 52.67 44.69 43.54 46.42 47.82 47.79 50.50 50.80 53.57 54.25 54.21 52.10 54.70 56.30 63.48 64.09 64.72 66.99 66.77 66.91 66.51 66.22 67.34 66.67 68.28 69.28 69.70 69.84 69.68 69.76 69.80 69.22 68.01 67.21 66.86 66.57 66.01 65.59 65.43 65.60 65.63 65.30 65.04 64.68 64.29 63.77 63.17 62.65
51.14 49.05 44.99 45.53 47.24 46.30 48.99 52.99 50.54 52.27 52.54 52.98 54.88 52.57 58.23 61.31 64.25 65.36 65.62 66.93 67.19 67.21 65.57 65.82 66.65 66.27 66.25 67.26 67.97 68.47 69.03 69.04 68.73 68.61 67.92 67.30 67.10 66.79 66.11 65.88 65.18 65.14 64.89 64.61 64.21 63.79 63.42 63.03 62.39
51.33 50.77 46.72 46.94 45.61 46.42 50.78 51.82 52.31 51.97 52.22 56.25 57.60 51.22 54.30 61.20 64.72 65.22 65.81 65.98 66.67 66.79 66.25 65.48 64.92 65.71 66.30 66.05 64.41 65.29 66.27 66.99 66.93 65.93 64.95 64.37 64.74 64.95 64.68 64.04 65.04 64.22 64.20 63.80 63.13 62.69 62.51 62.46 61.89
54.33 45.98 45.15 47.00 47.78 47.84 51.60 49.58 51.18 53.20 53.77 53.69 55.74 56.98 60.25 63.07 64.29 63.47 63.72 64.02 63.79 65.41 66.13 65.17 64.12 63.65 64.57 65.51 62.32 62.75 63.85 64.17 63.72 63.30 62.40 61.64 62.59 62.92 62.99 62.80 64.23 63.98 63.64 63.18 62.61 61.70 61.17 62.03 61.86
50.37 46.17 47.69 51.00 48.55 46.89 50.48 49.94 50.73 49.70 51.76 51.81 54.40 60.53 62.39 62.91 62.91 61.81 61.32 61.30 61.21 62.56 65.22 66.03 65.29 64.10 63.69 64.92 63.92 63.27 63.77 63.72 63.58 63.08 62.22 62.64 60.72 60.44 61.17 60.26 61.88 63.17 63.01 62.93 61.72 61.50 61.97 60.41 59.29
50.19 46.21 52.14 50.40 49.92 50.18 48.98 47.91 50.05 49.03 48.09 51.40 53.16 58.06 60.16 61.01 61.33 61.32 61.39 60.36 60.92 61.60 63.47 65.81 65.79 64.21 62.41 62.58 62.23 61.35 62.20 62.39 62.89 62.93 62.25 61.52 60.00 58.35 58.40 57.25 57.32 57.00 58.33 58.63 59.93 59.79 59.77 59.83 59.51
46.40 51.35 51.59 49.95 49.67 49.18 48.20 48.65 47.35 47.87 48.03 51.91 53.94 60.11 59.47 60.06 60.33 60.89 60.30 59.91 60.44 60.77 62.15 63.97 66.06 64.37 61.91 62.23 61.86 60.35 59.94 61.09 61.61 62.25 62.11 60.87 60.35 59.84 59.42 59.75 60.30 59.91 60.00 59.67 59.85 59.50 59.74 59.74 60.12
48.55 51.04 53.64 49.88 48.38 47.89 49.14 47.39 46.60 46.27 49.45 52.55 58.53 60.23 58.49 59.19 60.23 61.43 61.71 61.46 60.65 60.25 61.80 62.93 64.15 65.10 62.41 61.47 61.06 60.81 59.80 59.83 60.37 61.32 61.32 60.95 59.79 59.09 59.45 59.91 60.19 60.13 60.14 59.98 59.72 59.77 60.11 59.90 59.82
50.21 50.77 49.63 48.61 48.39 48.30 47.80 47.53 46.27 47.91 49.19 51.56 56.93 57.07 58.19 58.76 60.06 60.53 61.79 61.71 61.17 61.06 61.38 62.34 63.31 64.65 63.62 60.83 60.28 59.67 59.91 59.87 59.39 60.06 60.84 61.40 60.71 59.78 59.96 60.02 60.32 60.21 60.35 60.29 60.11 59.64 58.99 58.66 59.27
50.12 46.62 46.67 46.71 47.62 47.63 48.50 46.25 45.22 49.35 49.92 50.83 52.88 55.87 57.74 58.85 60.61 60.57 62.09 60.98 61.81 61.52 61.80 62.15 62.51 63.54 63.49 60.78 60.42 59.71 59.78 60.27 59.42 60.93 61.38 61.35 61.03 60.05 59.96 60.00 59.94 61.55 60.79 60.57 60.26 59.69 58.67 58.24 59.27
45.45 45.92 40.94 47.16 48.15 47.51 47.58 42.47 50.05 52.05 49.04 49.08 51.03 52.88 57.28 58.76 59.60 61.38 62.33 61.97 62.71 61.94 61.48 62.19 63.30 62.38 63.70 61.10 60.29 60.36 59.85 60.17 60.69 61.24 61.01 61.37 61.50 60.69 59.88 60.32 60.86 61.08 60.48 60.03 59.18 58.64 57.96 58.64 57.57
43.49 40.12 42.38 45.18 49.85 47.44 45.15 42.58 49.96 51.63 48.49 47.08 48.63 51.67 55.19 57.38 59.22 61.19 61.86 61.92 63.37 62.14 61.42 61.73 62.16 61.73 62.31 61.82 61.04 60.19 60.08 59.57 60.78 61.42 61.39 61.45 61.55 61.13 59.99 59.41 61.28 61.44 59.32 59.01 58.75 57.28 59.33 57.77 56.49
40.97 40.85 43.43 42.47 47.59 47.26 43.76 42.61 48.23 46.49 47.19 47.16 47.94 49.36 53.53 55.14 57.58 60.03 61.04 61.94 61.67 61.22 60.47 60.88 61.85 61.90 62.79 61.70 60.79 60.33 59.96 59.84 60.49 61.29 61.83 62.38 61.17 60.82 59.86 59.61 59.65 58.81 58.47 58.04 57.69 59.04 59.59 58.25 56.05
46.24 43.88 43.25 46.43 47.26 44.25 43.52 44.72 47.58 49.51 45.82 45.47 46.26 47.57 50.83 55.56 57.08 58.82 59.92 61.19 61.21 59.97 58.35 58.43 59.76 61.03 62.48 60.89 59.64 58.87 58.82 59.09 59.89 61.32 62.12 62.20 60.90 60.70 59.75 59.48 59.37 59.45 58.42 58.33 58.88 59.78 58.12 57.28 55.52
46.15 43.98 43.15 45.48 44.12 41.75 42.70 43.47 46.71 48.77 49.46 49.09 46.54 47.08 48.21 51.77 54.70 58.12 58.84 59.94 61.08 61.33 61.19 58.34 58.43 59.60 60.68 61.28 61.02 59.37 59.17 59.61 60.29 62.34 62.17 61.94 61.22 60.90 60.48 59.96 59.64 59.77 58.79 59.41 59.49 59.45 57.17 57.17 54.86
44.99 43.66 42.67 43.36 43.45 44.34 41.33 40.33 44.17 48.40 48.79 48.44 48.57 47.70 48.64 49.43 52.46 55.16 58.10 59.34 60.73 61.26 61.80 61.26 58.58 59.10 59.51 60.42 60.58 60.19 60.64 60.78 60.82 61.22 61.62 62.04 61.67 61.28 60.72 60.74 60.62 60.98 60.01 59.70 59.03 59.71 57.92 55.83 52.99
41.12 45.80 44.87 43.91 41.98 38.20 40.77 32.67 41.22 45.59 47.92 48.76 47.85 45.46 45.91 47.37 50.97 54.03 57.35 58.31 60.28 61.25 62.31 62.63 61.22 59.12 59.79 60.28 60.09 60.07 60.15 59.66 61.11 61.61 62.15 62.08 61.96 61.38 61.72 61.29 60.70 60.34 61.12 60.68 59.84 59.27 58.34 57.10 52.95
42.74 46.32 43.96 41.56 39.80 38.62 39.45 34.94 38.18 43.95 43.44 46.43 49.51 48.05 47.44 47.08 48.88 52.13 54.83 57.95 60.08 61.42 62.10 62.78 62.74 60.98 59.68 60.21 60.28 60.71 60.80 61.63 61.67 61.68 61.30 61.75 61.41 61.33 61.21 61.44 61.06 59.92 60.01 58.91 57.79 56.54 56.92 56.74 52.77
44.36 41.47 40.14 38.60 39.15 32.96 37.70 36.86 36.37 40.66 43.67 45.49 48.14 49.52 49.55 48.76 47.56 50.59 53.19 55.75 58.16 60.15 61.42 62.03 62.36 62.48 61.97 60.25 60.15 60.96 61.16 60.84 61.02 61.06 60.81 61.01 60.14 59.65 59.11 58.60 60.11 59.37 57.84 56.52 55.44 54.76 54.49 50.60 48.41
42.67 40.08 31.52 31.67 31.33 30.73 35.92 35.44 38.79 44.03 45.83 45.65 45.52 45.58 46.96 49.71 48.00 47.75 50.86 53.17 55.86 57.59 59.91 61.22 61.67 61.92 62.85 62.26 61.40 61.31 61.83 61.33 61.05 61.23 61.29 59.63 58.11 56.79 57.92 57.29 56.25 54.63 53.98 53.98 53.06 51.20 49.19 45.58 42.94
41.00 39.79 30.73 25.12 26.58 28.66 29.81 30.06 37.67 46.58 46.05 43.72 44.14 45.72 44.14 43.35 46.89 47.26 48.49 51.44 54.16 56.08 57.66 59.18 60.17 61.18 62.09 62.55 62.43 62.53 62.34 62.46 62.22 62.16 61.99 60.64 59.01 57.58 56.67 56.63 55.86 53.69 51.79 50.32 48.69 46.57 44.76 42.32 40.77
38.62 36.95 39.70 30.95 23.45 26.56 30.64 34.82 40.98 43.51 43.02 41.91 42.17 42.87 43.55 42.82 43.95 42.51 46.15 48.02 51.81 54.05 55.27 56.88 57.72 59.13 60.20 61.55 62.33 62.34 62.43 62.34 62.28 62.33 61.90 61.59 59.43 56.08 54.17 53.69 53.20 50.64 48.47 47.17 45.24 42.19 40.78 40.37 39.04
40.99 42.21 34.51 34.08 22.88 22.45 29.27 31.35 34.38 37.66 41.21 43.10 42.64 42.74 42.49 43.02 42.72 42.90 43.75 44.32 45.26 46.75 50.54 53.98 55.64 56.81 57.95 58.54 60.81 61.67 62.19 62.42 62.53 61.92 61.08 60.91 59.14 53.23 51.08 50.18 49.79 48.04 46.03 43.54 42.02 40.26 39.32 38.56 37.94
37.87 37.26 38.51 37.77 34.23 26.71 24.50 29.40 36.41 40.80 42.28 42.01 39.91 41.15 41.35 42.59 42.77 43.05 43.52 44.00 44.08 44.39 44.57 46.09 49.21 51.50 53.11 55.42 57.88 58.16 59.19 59.77 59.10 60.87 59.89 58.85 52.38 49.84 47.79 47.63 46.42 45.14 43.05 42.12 40.14 38.42 38.21 37.10 36.20
41.32 39.20 38.90 33.59 30.10 31.79 30.01 29.71 39.33 39.28 39.60 40.90 40.60 42.05 42.40 43.27 42.96 43.47 43.92 44.10 43.90 43.90 44.10 44.42 45.38 46.87 48.52 50.04 52.00 54.28 56.07 55.41 56.59 57.50 55.35 51.16 49.09 47.48 47.00 45.33 44.76 43.69 41.94 40.59 38.93 38.07 37.46 35.80 34.36

GFSSGP_sfc_wetblb_117.txt.gz
Wetbulb
58.38 55.76 54.19 53.51 45.48 43.65 40.67 44.10 47.75 48.54 49.42 53.22 55.27 55.55 55.77 55.94 54.84 50.20 64.47 67.25 67.76 68.76 69.15 69.15 70.49 70.78 70.48 71.24 71.57 71.35 71.11 71.48 70.84 70.31 70.11 69.25 68.51 68.54 67.57 68.01 68.07 67.20 67.04 66.95 66.93 66.51 66.09 65.47 65.53
57.53 56.78 55.03 49.65 41.60 38.47 40.09 44.74 48.08 50.05 53.00 55.20 56.05 55.93 55.61 54.62 59.19 59.90 64.44 68.16 68.67 68.38 68.16 68.21 69.64 70.51 70.35 70.67 71.22 71.12 70.99 71.39 70.48 70.47 70.16 68.99 68.19 67.76 67.36 66.99 66.70 66.81 66.54 66.48 66.54 66.19 65.67 65.06 65.01
56.64 55.26 49.16 47.49 42.48 39.40 40.61 47.18 49.36 51.88 55.07 54.42 53.48 57.29 55.93 56.30 59.49 60.19 66.53 67.77 68.17 67.43 67.44 68.11 69.56 70.43 70.45 70.36 70.74 70.70 70.74 71.01 70.65 69.80 68.93 68.72 68.02 67.51 67.03 66.98 66.53 66.51 66.27 66.00 65.90 65.39 64.38 64.21 64.62
53.20 52.03 48.97 42.37 42.40 44.05 44.10 49.48 51.32 49.97 53.18 55.46 55.21 53.60 58.08 60.76 60.51 63.98 67.80 67.96 67.21 67.05 67.50 68.51 69.81 70.44 70.35 70.22 70.38 70.61 70.61 70.43 69.96 68.83 68.31 67.84 67.28 66.67 66.23 66.43 66.19 66.03 65.87 65.76 65.28 64.71 64.05 63.88 64.06
52.18 49.53 43.87 43.50 43.17 44.63 44.53 49.68 51.51 50.11 50.75 52.14 53.89 53.25 55.64 60.17 62.97 66.61 67.18 67.44 66.03 65.94 66.95 68.18 69.40 70.17 70.29 70.41 70.43 70.53 70.72 70.54 69.62 67.99 67.45 66.93 66.39 66.14 66.09 66.13 65.76 65.70 65.51 65.39 65.00 64.44 63.84 63.50 63.41
49.07 48.40 41.51 39.79 43.18 44.58 45.68 49.31 50.19 51.12 51.83 51.99 53.68 54.34 54.31 60.80 63.42 65.33 67.08 66.14 66.25 65.20 66.81 67.77 66.44 68.02 69.23 69.76 69.91 69.82 70.06 69.64 68.60 67.53 66.93 66.47 65.86 65.75 65.78 65.91 65.51 65.49 65.20 64.94 64.61 64.07 63.48 62.92 62.76
47.65 47.38 42.93 40.53 42.40 42.40 47.64 51.44 48.27 50.40 51.46 51.19 54.22 53.56 55.86 59.97 63.68 65.13 66.36 66.32 65.62 65.28 65.76 66.06 66.55 66.14 66.01 67.03 67.62 68.59 68.96 68.62 68.26 68.00 67.45 66.82 66.60 66.23 65.61 65.86 65.45 65.16 64.87 64.41 64.05 63.71 63.32 62.89 62.69
48.36 46.68 44.85 41.76 42.39 42.89 48.58 48.82 49.46 50.76 50.21 54.74 55.24 53.11 53.91 58.85 63.95 65.20 66.03 65.91 65.64 64.35 64.65 64.38 65.22 65.89 65.59 65.22 64.17 65.67 66.92 67.12 67.00 66.18 65.12 64.26 64.48 64.78 64.39 63.63 64.97 64.71 64.16 63.39 63.01 62.76 62.61 62.31 62.02
51.50 42.41 42.26 44.65 44.32 44.86 49.02 46.66 49.39 50.98 52.46 53.73 55.76 55.98 58.37 61.80 63.80 63.96 63.74 64.35 64.82 64.37 63.22 63.84 63.60 64.71 64.76 63.58 62.02 63.02 63.99 64.07 63.71 63.15 62.08 61.15 61.81 62.28 62.37 62.29 63.81 63.89 63.51 62.98 62.42 61.85 61.68 61.78 61.20
50.52 42.00 44.43 47.40 44.22 45.60 49.43 47.81 48.75 48.31 49.79 50.62 56.70 59.53 61.05 61.41 61.35 61.74 62.03 61.71 62.86 63.43 62.75 63.03 62.26 63.12 64.37 64.59 62.35 62.39 62.59 61.88 61.49 61.14 60.82 61.39 60.32 60.58 61.65 60.38 62.17 63.22 62.80 63.03 62.12 62.19 62.09 60.09 58.32
47.28 44.53 49.76 46.85 47.09 47.97 47.25 46.14 49.31 47.85 46.22 50.97 53.76 57.67 59.45 59.47 60.49 61.13 61.27 62.00 61.75 61.40 64.14 63.68 63.12 62.75 61.80 62.81 61.90 61.63 61.75 61.43 61.11 60.94 61.30 59.03 58.15 57.94 58.16 57.65 58.18 57.56 58.37 57.64 59.31 59.03 58.75 58.51 58.30
44.12 48.92 48.57 48.80 48.04 47.37 46.20 47.36 45.51 46.34 47.14 50.73 58.20 59.70 59.63 59.85 60.60 60.88 60.76 60.09 60.26 60.83 62.75 63.76 63.82 62.11 61.37 61.82 60.20 60.22 60.66 60.84 60.73 61.08 60.45 58.17 57.01 56.21 56.34 55.89 56.07 56.29 57.06 57.84 58.39 58.06 58.64 58.71 59.07
45.84 47.65 50.80 47.68 46.84 46.15 47.67 45.38 45.17 44.66 46.94 53.35 59.99 59.30 57.97 58.27 59.94 61.51 61.57 60.51 60.18 59.56 61.50 62.86 63.74 61.79 61.20 60.69 60.04 58.57 58.26 59.81 60.70 60.85 60.66 60.09 58.83 58.02 58.22 58.38 58.65 58.75 58.90 58.87 58.47 58.49 58.96 58.63 58.61
49.20 49.13 48.95 47.00 45.87 46.22 46.19 45.41 45.89 46.35 47.50 55.80 58.28 56.97 57.25 58.11 59.16 60.71 60.53 59.22 59.90 60.36 60.88 62.08 63.04 63.88 60.72 60.16 59.60 58.92 58.28 58.97 59.22 59.61 59.51 59.91 59.06 58.40 58.64 58.67 59.08 59.01 59.09 59.07 59.11 58.65 57.75 57.41 59.19
49.76 44.34 47.66 45.82 45.57 45.71 46.36 44.57 44.40 48.61 48.81 53.37 54.75 56.00 56.63 57.40 58.79 59.38 61.30 60.32 60.25 60.67 61.63 61.31 62.23 62.97 61.22 59.70 59.13 58.67 58.86 58.76 57.94 58.81 59.68 59.78 59.66 58.50 58.78 58.79 58.79 60.17 59.64 59.50 59.19 58.69 57.74 56.54 57.92
43.10 43.65 40.12 45.71 45.29 46.43 46.25 41.22 47.14 48.79 47.52 47.35 51.24 53.85 56.06 57.34 58.21 59.57 60.68 61.72 61.61 60.51 61.23 61.72 63.10 61.98 62.42 60.16 58.89 58.53 58.39 58.42 58.25 59.29 59.69 60.15 60.10 59.42 58.38 58.66 58.76 60.89 59.65 59.23 58.30 57.61 56.43 56.56 56.90
43.04 38.01 41.00 44.36 47.34 45.41 44.13 40.71 47.60 48.92 46.87 46.02 46.20 50.52 55.39 56.75 57.80 58.81 60.78 59.94 60.79 60.66 60.96 61.17 61.68 61.17 61.82 61.08 59.02 58.52 58.22 58.33 58.93 59.93 59.97 59.97 60.17 59.84 58.94 58.84 59.45 61.06 59.04 57.77 57.68 56.09 56.51 56.28 56.31
37.68 40.39 42.22 42.31 44.90 43.92 41.10 41.33 46.21 45.92 45.24 45.24 45.38 46.59 55.05 56.31 57.62 59.35 60.80 60.83 61.74 61.00 60.96 61.12 61.57 61.21 61.10 60.94 58.67 58.10 57.69 57.62 58.58 59.34 59.74 60.06 60.19 59.85 59.03 58.32 59.15 59.17 57.62 56.87 56.48 56.14 57.71 57.33 56.43
43.44 41.65 40.98 42.76 46.23 43.68 43.43 41.94 44.06 46.78 44.64 43.37 44.56 45.12 51.14 55.32 58.41 59.53 60.33 60.69 59.64 60.76 60.17 60.80 60.69 61.12 61.01 60.47 58.40 57.77 57.50 57.58 57.66 58.78 60.38 60.55 60.34 59.68 58.67 58.33 58.18 57.35 56.97 56.85 56.90 57.30 57.77 57.12 55.90
44.65 41.75 42.14 45.10 44.43 44.23 41.07 41.43 44.50 46.42 47.33 44.82 45.21 45.25 45.45 52.48 53.49 57.74 58.32 59.57 59.25 59.71 59.89 60.16 60.62 60.66 60.97 61.67 61.05 58.68 57.74 58.24 59.22 59.70 60.77 60.89 60.35 59.85 59.01 58.57 58.03 57.54 56.32 56.64 56.47 57.45 56.66 56.36 55.30
42.44 42.58 43.16 43.75 41.54 43.05 39.03 38.19 41.52 46.08 46.53 47.70 47.30 46.27 46.81 47.20 53.51 55.14 57.06 58.58 59.56 58.10 57.73 57.66 60.15 60.43 61.00 61.27 60.58 58.36 58.25 58.26 58.30 59.36 60.67 60.85 60.75 60.16 59.57 59.00 58.58 58.56 58.19 57.36 57.26 57.36 56.60 54.97 54.21
39.47 45.60 44.44 41.58 40.54 36.30 39.67 31.31 38.37 43.38 45.05 46.81 46.41 44.65 45.43 46.35 50.21 54.91 56.71 57.64 58.83 59.46 59.64 57.65 57.78 59.22 60.18 60.97 60.00 59.73 58.74 57.93 59.34 59.80 61.33 61.06 60.69 60.16 59.92 59.88 59.73 59.37 59.24 58.15 58.41 59.53 58.51 56.56 53.26
40.58 45.40 42.50 41.67 38.07 35.45 36.51 33.68 36.61 40.99 41.20 44.57 48.37 46.07 45.57 45.94 47.43 50.41 56.00 57.62 58.76 60.11 60.25 60.50 57.56 57.46 58.86 59.26 59.98 59.35 58.60 59.10 59.79 60.66 60.47 61.08 61.01 60.37 60.07 59.76 59.36 59.21 59.18 59.48 57.87 57.36 57.97 57.13 54.40
43.72 41.75 40.84 40.10 38.78 33.48 36.64 36.36 34.85 39.04 43.14 44.17 46.06 49.48 48.71 46.13 45.13 48.09 53.61 57.17 57.76 59.50 60.28 59.88 59.94 57.42 57.88 58.13 58.84 58.65 58.34 58.63 59.23 59.67 60.00 60.52 60.77 60.49 59.73 59.56 59.55 59.43 58.97 58.55 58.29 58.30 56.92 55.47 53.25
43.15 40.92 32.55 31.32 31.56 29.27 35.74 34.71 39.22 41.46 43.95 44.48 45.50 45.55 47.70 46.46 45.34 46.63 48.00 51.38 54.78 56.98 59.18 59.90 60.35 60.07 58.12 57.52 58.23 58.51 58.86 59.61 59.81 59.89 60.31 60.08 59.94 58.02 59.55 59.01 58.73 58.29 57.95 56.21 55.25 54.57 54.71 52.82 50.41
41.08 39.58 29.13 23.13 26.12 26.44 29.68 30.28 35.76 45.20 47.80 45.88 46.79 46.85 44.11 43.67 45.72 45.08 46.31 49.94 53.59 56.21 58.17 58.97 59.27 60.30 60.45 59.35 57.76 58.64 59.30 60.72 60.73 60.66 60.76 60.40 60.31 60.07 59.71 59.11 59.39 57.81 56.52 55.26 53.94 50.43 48.73 46.64 45.40
39.17 37.66 37.75 28.98 20.34 24.26 28.85 32.67 39.35 41.64 43.13 41.76 41.57 41.01 42.41 42.52 41.83 44.69 44.64 46.88 51.03 53.42 55.78 58.25 59.28 60.22 60.29 61.13 60.96 59.34 59.26 59.84 60.77 60.79 60.96 60.74 60.18 59.24 55.65 57.24 58.52 56.55 54.75 53.72 51.14 49.22 45.29 42.66 40.19
41.44 42.53 34.96 30.60 21.45 21.28 26.84 28.16 32.06 36.52 40.01 41.54 41.80 42.01 40.34 40.47 40.89 41.49 41.78 42.84 44.75 49.97 52.95 54.96 57.42 59.02 59.55 60.46 61.31 61.13 60.87 60.80 61.08 60.96 60.48 60.52 60.00 57.91 56.07 55.53 55.90 54.58 52.81 50.72 48.95 44.68 41.91 40.42 38.85
38.65 37.79 36.70 36.35 30.99 25.24 22.83 27.85 36.95 38.73 42.44 40.91 39.27 40.56 40.29 40.39 40.71 41.29 41.84 42.12 42.12 42.11 42.52 45.91 51.25 53.84 55.22 56.55 59.16 59.75 60.17 60.66 60.95 60.88 60.59 60.79 59.54 56.65 56.02 54.57 53.10 51.88 50.06 47.75 45.97 42.77 40.08 40.00 38.38
41.34 39.37 39.73 33.36 29.97 30.53 28.59 29.06 37.71 38.54 39.55 38.27 38.82 40.21 40.29 41.12 41.57 42.12 42.33 42.14 42.11 42.40 42.36 42.29 42.59 43.97 47.69 50.62 52.86 54.29 55.64 55.22 58.17 60.16 60.82 58.51 56.82 54.39 54.43 51.98 50.66 49.89 48.10 45.27 44.73 41.84 41.41 40.54 37.26

GFSSGP_sfc_wetblb_123.txt.gz
Wetbulb
59.66 56.06 52.37 51.60 45.78 42.43 38.34 41.07 44.71 46.77 48.22 52.78 54.58 54.62 53.31 53.91 51.11 45.27 63.01 66.11 66.34 67.62 68.55 69.85 71.28 71.27 71.04 70.76 70.55 70.89 70.77 69.77 69.01 68.38 67.54 67.62 67.13 66.94 67.02 66.74 66.64 66.65 66.71 66.44 66.60 66.48 66.59 66.44 66.82
56.33 55.60 53.10 46.67 41.45 37.49 38.93 43.42 44.89 47.54 52.84 55.70 55.48 55.15 53.87 52.24 57.33 62.08 63.71 66.62 67.71 67.17 68.01 68.66 69.90 71.20 70.87 71.06 70.85 70.81 70.76 70.36 69.02 68.63 68.24 67.37 67.03 66.74 66.36 66.22 66.32 66.45 66.34 66.20 66.46 66.30 66.26 66.11 65.67
54.31 52.85 48.49 44.64 39.47 37.77 39.35 44.90 47.03 50.18 53.47 51.55 53.82 56.24 54.00 54.68 59.56 62.21 65.79 67.79 66.50 66.06 67.32 67.89 69.26 70.51 70.65 70.79 70.99 71.02 70.93 70.64 68.91 68.02 67.32 67.15 67.01 66.56 66.14 65.95 65.87 65.76 65.41 65.62 66.09 65.83 65.82 65.79 65.50
52.06 50.89 47.02 41.54 39.22 41.81 45.02 47.83 49.14 49.38 50.80 54.26 54.78 52.59 56.71 59.44 60.19 63.49 67.14 66.83 65.03 65.47 66.66 67.95 69.73 70.68 70.84 70.85 71.07 70.83 70.66 70.00 69.02 67.87 67.10 66.57 66.39 66.01 65.76 65.58 65.57 65.27 64.96 65.31 65.51 65.33 65.30 65.53 65.57
50.97 47.92 41.79 38.66 39.94 42.18 45.81 49.41 49.09 48.29 49.03 51.18 53.30 51.91 53.26 58.59 63.24 66.18 66.27 65.84 64.08 64.54 65.89 67.35 69.14 69.89 70.55 70.64 70.87 70.44 70.16 69.24 68.17 67.53 66.38 65.87 66.11 65.66 65.75 65.50 65.43 65.19 64.81 64.74 64.74 64.62 64.81 65.01 65.19
47.09 46.07 40.22 38.53 39.51 42.52 45.35 49.66 48.88 47.80 49.61 52.38 53.17 53.21 53.72 59.34 63.50 64.70 66.46 65.04 64.79 64.60 65.74 66.77 66.18 67.95 69.07 69.79 70.08 70.03 69.81 69.06 68.00 66.89 66.22 65.86 65.67 65.63 65.43 65.50 65.31 65.03 64.51 64.19 64.14 64.05 64.23 64.30 64.05
45.79 42.93 39.15 39.38 39.07 39.74 44.68 47.82 47.33 48.30 49.20 48.47 55.54 50.88 51.99 56.78 63.39 65.50 65.56 65.09 65.24 65.11 65.11 65.26 65.96 66.06 65.88 67.45 68.09 68.70 68.73 68.15 67.58 67.24 66.74 66.46 66.37 66.20 65.75 65.63 65.08 64.74 64.27 63.90 63.80 63.72 63.78 63.89 63.86
46.79 47.20 41.94 39.13 39.91 40.45 46.22 46.36 48.31 49.30 48.82 53.55 56.48 50.16 50.09 57.66 63.89 65.18 64.56 64.20 64.94 64.04 64.04 63.95 64.50 65.03 64.58 65.37 64.89 65.64 66.49 66.72 66.70 66.14 64.97 64.22 64.45 64.62 64.61 64.01 64.98 64.30 63.84 63.50 63.25 63.19 62.98 62.84 63.22
48.39 41.17 39.93 44.12 42.13 42.28 47.06 45.77 47.31 50.19 51.33 53.73 55.38 54.08 55.51 60.16 63.74 62.69 62.14 62.60 63.59 63.75 62.76 63.19 63.45 63.34 63.28 63.70 62.53 63.24 64.22 64.47 64.00 62.94 61.61 60.76 60.49 60.52 60.42 61.86 63.96 63.84 63.38 62.76 62.60 62.08 61.61 61.51 60.86
45.73 40.28 43.42 47.89 44.07 44.40 46.95 46.55 48.52 48.96 49.63 49.51 52.19 55.73 58.08 61.97 62.12 60.93 60.81 59.94 61.14 62.36 61.63 62.46 62.52 62.49 62.76 64.44 62.67 62.26 62.48 61.61 60.79 60.07 59.64 60.08 59.44 59.14 59.96 59.13 61.49 62.59 62.51 63.29 62.00 61.79 61.37 59.08 57.05
46.04 42.36 47.82 45.68 44.23 47.03 46.56 44.42 46.47 47.88 46.38 49.75 51.53 55.19 57.81 59.50 60.78 61.08 61.14 60.66 60.44 62.13 62.27 61.90 62.31 62.19 61.30 62.14 61.21 60.55 60.15 59.52 58.99 58.85 59.39 59.18 59.16 58.40 57.98 57.74 58.26 57.30 57.54 56.95 57.75 57.56 57.16 57.15 57.13
43.48 46.49 49.29 48.19 45.73 44.90 44.78 46.53 44.85 47.48 47.58 49.53 54.03 57.70 58.27 58.61 59.34 60.68 60.86 61.08 60.75 61.04 61.27 61.53 61.82 62.15 60.93 60.58 60.59 59.96 59.13 58.22 58.13 58.34 59.15 57.57 56.12 55.95 55.59 55.97 55.79 55.36 56.02 55.44 55.81 56.47 56.98 57.10 57.44
43.49 45.25 49.80 49.30 46.64 44.03 45.26 44.05 44.11 44.29 46.03 51.99 57.20 58.04 57.65 58.31 58.83 59.88 60.88 61.25 61.99 61.40 61.50 61.08 60.96 61.91 61.34 59.74 59.80 59.85 58.90 58.49 58.74 58.95 59.40 57.25 54.91 54.14 54.38 54.34 54.43 54.71 55.68 55.92 56.30 56.44 56.94 57.15 57.19
47.41 47.58 48.49 47.77 45.56 43.54 43.63 42.47 42.54 44.09 48.45 54.13 56.17 56.39 57.15 57.62 58.39 58.21 59.12 59.38 61.00 62.29 61.81 61.86 61.00 61.83 61.45 60.98 58.99 59.65 59.12 59.32 58.86 58.82 58.73 57.17 55.98 54.97 55.71 55.80 56.34 56.82 57.20 57.48 57.30 57.08 56.90 56.42 56.91
49.55 43.74 46.58 45.86 44.81 42.81 44.74 42.00 42.00 44.21 52.50 53.21 54.37 54.40 56.33 57.08 57.43 58.91 60.12 59.85 60.23 60.83 62.37 62.12 61.44 60.82 60.50 60.89 59.99 59.12 59.50 59.49 58.98 59.06 58.92 58.17 57.52 56.83 56.59 56.47 56.69 57.47 57.39 57.24 57.02 56.63 56.37 55.03 55.03
43.04 42.81 40.22 44.69 45.17 45.22 43.99 38.84 44.51 46.38 51.40 51.32 52.98 53.44 54.63 56.18 57.38 58.47 59.04 59.29 59.95 60.38 60.75 62.22 62.83 60.42 59.93 59.85 59.59 59.11 58.84 58.69 58.96 59.32 59.23 58.62 58.50 57.62 56.46 56.77 56.95 57.84 57.66 57.43 57.17 56.29 55.12 54.30 53.21
37.59 34.41 37.84 41.32 45.62 44.72 42.91 38.62 44.87 46.15 48.58 48.90 51.16 52.47 54.09 54.45 55.62 57.42 58.22 59.48 58.89 60.01 60.41 61.32 62.12 61.68 59.71 59.66 59.20 58.44 57.28 57.02 57.76 57.93 58.57 58.12 58.20 57.96 56.91 56.85 57.31 57.76 57.50 56.92 56.58 55.48 54.48 52.82 53.27
33.91 33.97 37.19 39.17 43.01 41.97 39.29 38.63 43.36 45.01 44.04 44.66 45.94 51.11 52.84 54.46 55.36 57.86 57.98 58.96 58.91 59.14 59.87 61.10 61.96 62.34 61.85 58.97 57.81 56.68 56.62 56.36 56.40 57.00 57.40 57.80 57.98 57.93 57.09 56.71 57.12 57.17 56.40 55.66 54.97 55.02 54.25 53.74 53.28
39.41 37.05 36.99 38.85 43.20 41.51 41.38 40.33 41.96 44.81 43.13 42.70 41.82 43.09 50.14 53.54 56.63 57.04 58.03 58.53 58.69 58.20 58.74 59.89 60.50 61.76 61.66 59.91 56.02 55.11 56.35 56.04 55.19 55.93 57.01 57.47 57.85 57.75 56.82 56.37 56.56 56.63 56.20 55.96 55.48 54.49 53.63 54.11 54.42
40.15 37.09 35.88 40.40 42.61 40.88 40.66 40.60 42.15 43.16 44.51 44.90 45.22 42.40 43.05 47.43 52.97 55.86 57.11 57.47 58.33 58.85 58.58 59.20 59.91 60.89 61.35 62.06 60.53 57.23 56.77 55.24 56.45 56.07 56.50 57.55 57.64 57.70 57.41 56.47 56.11 56.15 55.52 55.32 54.65 54.00 53.12 53.99 54.76
39.63 38.28 37.36 38.69 38.80 39.27 37.11 37.85 39.89 42.50 44.88 45.49 45.78 46.96 45.77 45.56 46.49 52.86 55.98 57.16 57.99 58.56 58.25 58.94 59.67 60.34 60.99 61.77 59.24 56.45 55.93 55.29 54.84 54.66 55.72 57.30 58.09 58.13 57.76 56.89 56.86 56.27 56.14 55.53 54.32 53.72 53.83 52.82 54.66
37.78 42.23 42.40 41.06 36.92 33.68 38.16 30.95 38.28 40.31 42.90 43.84 46.70 46.22 47.18 45.30 46.16 49.64 54.61 56.49 57.54 58.57 59.58 59.27 59.64 59.95 60.47 61.05 60.34 59.70 58.76 56.66 57.55 57.72 56.96 56.79 58.19 58.41 58.31 58.01 57.60 57.22 56.71 55.64 54.81 54.66 54.72 54.05 53.41
39.32 44.37 43.26 40.19 35.58 35.65 34.67 35.92 35.85 37.98 38.83 42.36 45.79 47.59 48.07 47.64 46.67 47.69 52.84 56.39 57.92 58.90 59.26 59.26 59.33 59.56 59.96 60.02 60.61 59.88 59.30 59.43 58.58 56.49 55.81 56.78 57.50 58.55 58.59 58.29 57.70 57.44 56.84 56.66 55.55 53.73 54.76 56.08 55.72
43.56 41.23 40.06 37.50 36.57 32.52 35.55 35.37 32.91 36.88 39.59 42.06 44.73 45.78 47.46 47.56 46.09 47.25 50.23 54.89 57.03 58.30 58.92 59.05 58.63 59.16 59.77 59.55 59.75 59.62 59.37 59.37 57.21 56.49 56.72 56.65 57.52 57.99 58.07 57.89 58.15 57.89 57.22 56.59 56.33 56.00 55.29 56.00 56.94
42.91 39.43 32.02 30.83 30.77 28.12 32.63 32.20 36.95 39.24 42.22 43.74 45.93 46.01 45.03 46.28 45.28 45.40 44.94 50.63 54.58 55.68 57.96 57.64 57.38 57.89 59.20 59.17 59.29 59.32 59.21 59.23 58.78 57.79 57.10 56.60 56.60 57.30 57.93 57.26 57.28 57.66 57.36 57.19 56.83 56.03 56.18 56.98 57.04
39.89 38.60 28.71 23.61 25.01 26.24 31.67 30.40 35.12 42.78 46.16 47.01 44.27 44.57 44.18 44.48 44.26 44.45 45.01 47.70 52.96 55.22 57.30 57.80 56.34 56.21 57.69 58.61 58.90 59.27 58.92 58.61 58.45 57.98 57.87 57.41 57.56 57.93 57.43 57.48 57.84 57.44 57.27 56.77 56.48 56.60 56.74 57.64 57.31
39.70 36.53 37.63 28.59 18.13 23.22 28.44 31.58 36.79 39.39 40.30 41.02 41.42 43.28 44.19 43.92 42.49 42.96 43.64 43.10 48.27 53.00 55.16 56.95 57.55 57.06 55.30 56.24 57.66 57.81 58.41 57.96 57.74 57.55 57.12 57.93 57.99 57.96 56.15 56.98 57.49 57.97 57.27 57.06 56.88 56.61 56.89 56.11 55.96
41.43 43.01 33.83 31.07 19.73 19.39 25.64 26.69 31.83 34.48 41.34 43.34 41.33 41.58 44.88 42.46 40.84 39.88 41.00 41.78 42.19 47.75 52.20 54.45 56.67 57.75 58.13 55.42 55.43 55.88 56.33 57.19 57.69 56.70 56.55 57.50 58.08 57.04 55.06 55.81 56.90 56.96 57.46 57.76 57.56 57.51 56.84 55.64 54.60
38.17 38.08 37.22 35.69 28.98 24.29 21.10 27.23 34.54 39.77 40.77 41.76 43.48 41.32 41.04 41.29 40.75 39.44 39.29 38.88 40.08 44.29 48.82 51.66 53.32 54.26 55.09 55.84 56.54 54.74 54.26 54.38 55.24 56.34 56.58 57.19 57.14 56.38 56.98 56.58 56.99 57.43 57.31 57.76 57.34 56.55 56.05 52.35 53.90
42.17 38.71 39.17 33.45 29.55 27.98 26.49 30.04 36.51 38.01 39.21 39.13 40.85 40.97 39.39 39.18 38.85 39.13 39.19 39.54 39.49 39.77 40.56 46.07 48.51 50.48 51.81 53.30 54.61 55.48 55.60 54.80 54.75 55.37 56.44 57.67 58.39 58.41 58.21 57.48 56.98 56.97 56.95 57.22 55.51 54.85 52.66 51.90 51.23